<- Previous Day | Today | Next Day ->

All Data for 07 July 2022

 

Time A - D Temp A - D Dew Point A - D Humidity A - D Pressure A - D Wind A - D Wind Dir Gust A - D Rain Rate A - D Rain Total
00:00 16.5 15.4 93 1030.8 6.9 NW 9.8 0.0 0.0
00:01 16.5 15.4 93 1030.9 6.9 NW 9.8 0.0 0.0
00:02 16.5 15.4 93 1030.8 13.0 NW 13.0 0.0 0.0
00:03 16.5 15.4 93 1030.8 6.0 NW 13.0 0.0 0.0
00:04 16.5 15.4 93 1030.9 6.0 W 13.0 0.0 0.0
00:05 16.5 15.4 93 1030.8 6.0 W 13.0 0.0 0.0
00:06 16.5 15.4 93 1031.0 8.3 NW 13.0 0.0 0.0
00:07 16.5 15.4 93 1030.9 6.0 NW 13.0 0.0 0.0
00:08 16.5 15.4 93 1030.7 6.0 NW 13.0 0.0 0.0
00:09 16.5 15.4 93 1030.8 7.6 SW 13.0 0.0 0.0
00:10 16.5 15.4 93 1030.7 9.2 NW 13.0 0.0 0.0
00:11 16.5 15.4 93 1031.0 6.0 WNW 13.0 0.0 0.0
00:13 16.4 15.3 93 1030.9 6.9 N 9.2 0.0 0.0
00:14 16.5 15.4 93 1030.9 9.2 W 9.2 0.0 0.0
00:15 16.5 15.4 93 1030.9 11.4 NW 11.4 0.0 0.0
00:16 16.4 15.3 93 1030.6 8.3 NNE 11.4 0.0 0.0
00:17 16.4 15.3 93 1030.9 6.9 NW 11.4 0.0 0.0
00:18 16.4 15.3 93 1030.7 10.7 SW 11.4 0.0 0.0
00:19 16.4 15.3 93 1031.0 10.7 SW 11.4 0.0 0.0
00:20 16.4 15.4 94 1030.8 8.3 NW 11.4 0.0 0.0
00:21 16.4 15.4 94 1030.8 8.3 NW 11.4 0.0 0.0
00:22 16.4 15.4 94 1030.8 8.3 NW 11.4 0.0 0.0
00:23 16.4 15.4 94 1030.8 8.3 WNW 11.4 0.0 0.0
00:24 16.4 15.4 94 1030.8 7.6 W 11.4 0.0 0.0
00:25 16.4 15.4 94 1030.7 5.4 SW 11.4 0.0 0.0
00:27 16.4 15.4 94 1030.6 10.7 NE 10.7 0.0 0.0
00:28 16.4 15.4 94 1030.8 5.4 NW 10.7 0.0 0.0
00:29 16.4 15.4 94 1030.6 8.3 NW 10.7 0.0 0.0
00:30 16.4 15.4 94 1030.7 6.9 N 10.7 0.0 0.0
00:31 16.4 15.4 94 1030.7 8.3 NW 10.7 0.0 0.0
00:32 16.4 15.4 94 1030.8 6.9 NW 10.7 0.0 0.0
00:33 16.4 15.4 94 1030.8 6.9 NW 10.7 0.0 0.0
00:34 16.4 15.4 94 1030.8 6.9 NW 10.7 0.0 0.0
00:35 16.3 15.3 94 1031.0 8.3 W 10.7 0.0 0.0
00:36 16.3 15.3 94 1030.7 11.4 W 11.4 0.0 0.0
00:37 16.3 15.3 94 1030.6 9.8 N 11.4 0.0 0.0
00:38 16.3 15.3 94 1030.6 9.8 W 11.4 0.0 0.0
00:39 16.3 15.3 94 1030.7 8.3 W 11.4 0.0 0.0
00:41 16.3 15.3 94 1030.7 6.9 N 11.4 0.0 0.0
00:42 16.3 15.3 94 1030.5 7.6 NW 11.4 0.0 0.0
00:43 16.3 15.3 94 1030.8 8.3 W 11.4 0.0 0.0
00:44 16.3 15.3 94 1030.6 9.2 W 11.4 0.0 0.0
00:45 16.3 15.3 94 1030.8 8.3 NW 11.4 0.0 0.0
00:46 16.3 15.3 94 1030.7 8.3 NW 9.8 0.0 0.0
00:47 16.3 15.3 94 1030.8 9.8 N 9.8 0.0 0.0
00:48 16.3 15.3 94 1030.5 9.8 N 9.8 0.0 0.0
00:49 16.3 15.3 94 1030.7 9.8 N 9.8 0.0 0.0
00:50 16.3 15.3 94 1030.6 9.2 NW 9.8 0.0 0.0
00:51 16.3 15.3 94 1030.6 7.6 N 9.8 0.0 0.0
00:52 16.3 15.3 94 1030.3 9.2 NW 9.8 0.0 0.0
00:53 16.3 15.3 94 1030.5 9.2 NW 9.8 0.0 0.0
00:54 16.3 15.3 94 1030.6 9.2 NW 9.8 0.0 0.0
00:55 16.3 15.3 94 1030.4 8.3 NW 9.8 0.0 0.0
00:56 16.3 15.3 94 1030.7 10.7 NW 10.7 0.0 0.0
00:57 16.3 15.3 94 1030.6 8.3 W 10.7 0.0 0.0
00:58 16.3 15.3 94 1030.5 10.7 NW 10.7 0.0 0.0
00:59 16.3 15.3 94 1030.5 10.7 NW 10.7 0.0 0.0
01:00 16.3 15.3 94 1030.5 10.7 NW 10.7 0.0 0.0
01:01 16.3 15.3 94 1030.5 10.7 NW 10.7 0.0 0.0
01:02 16.3 15.3 94 1030.4 10.7 NW 10.7 0.0 0.0
01:03 16.3 15.3 94 1030.4 9.2 WNW 10.7 0.0 0.0
01:04 16.3 15.3 94 1030.4 9.2 WNW 10.7 0.0 0.0
01:05 16.3 15.3 94 1030.5 6.9 NW 10.7 0.0 0.0
01:06 16.3 15.3 94 1030.5 6.9 NW 10.7 0.0 0.0
01:07 16.2 15.2 94 1030.4 9.2 WNW 10.7 0.0 0.0
01:08 16.2 15.2 94 1030.4 9.2 NE 10.7 0.0 0.0
01:09 16.2 15.2 94 1030.5 9.2 NW 10.7 0.0 0.0
01:10 16.2 15.2 94 1030.4 6.0 WNW 10.7 0.0 0.0
01:11 16.2 15.2 94 1030.5 7.6 NW 10.7 0.0 0.0
01:12 16.1 15.1 94 1030.4 6.9 W 9.2 0.0 0.0
01:13 16.1 15.1 94 1030.4 6.0 W 9.2 0.0 0.0
01:14 16.1 15.1 94 1030.4 8.3 WNW 9.2 0.0 0.0
01:15 16.1 15.1 94 1030.4 8.3 NW 9.2 0.0 0.0
01:16 16.1 15.1 94 1030.4 8.3 NW 9.2 0.0 0.0
01:17 16.1 15.1 94 1030.3 9.2 NW 9.2 0.0 0.0
01:18 16.1 15.1 94 1030.3 8.3 W 9.2 0.0 0.0
01:19 16.1 15.1 94 1030.4 8.3 NW 9.2 0.0 0.0
01:20 16.1 15.1 94 1030.1 6.0 N 9.2 0.0 0.0
01:21 16.1 15.1 94 1030.4 6.0 N 9.2 0.0 0.0
01:22 16.1 15.1 94 1030.4 9.2 NW 9.2 0.0 0.0
01:24 16.0 15.0 94 1030.4 9.8 NW 9.8 0.0 0.0
01:25 16.0 15.0 94 1030.3 10.7 NW 10.7 0.0 0.0
01:26 16.0 15.0 94 1030.3 9.8 WNW 10.7 0.0 0.0
01:27 16.0 15.0 94 1030.3 9.8 NW 10.7 0.0 0.0
01:28 16.0 15.0 94 1030.3 6.9 N 10.7 0.0 0.0
01:29 16.0 15.0 94 1030.3 6.9 N 10.7 0.0 0.0
01:30 16.0 15.0 94 1030.3 11.4 NW 11.4 0.0 0.0
01:31 16.0 15.0 94 1030.2 10.7 NW 11.4 0.0 0.0
01:32 16.0 15.0 94 1030.3 12.1 N 12.1 0.0 0.0
01:33 16.0 15.0 94 1030.4 9.8 NW 12.1 0.0 0.0
01:34 16.0 15.0 94 1030.4 10.7 NW 12.1 0.0 0.0
01:35 15.9 14.9 94 1030.3 7.6 NW 12.1 0.0 0.0
01:36 15.9 14.9 94 1030.3 11.4 W 12.1 0.0 0.0
01:38 15.9 14.9 94 1030.3 9.8 N 13.0 0.0 0.0
01:39 15.9 14.9 94 1030.3 9.8 N 13.0 0.0 0.0
01:40 15.9 14.9 94 1030.4 6.9 N 13.0 0.0 0.0
01:41 15.9 14.9 94 1030.3 8.3 NW 13.0 0.0 0.0
01:42 15.9 14.9 94 1030.3 6.9 NW 13.0 0.0 0.0
01:43 15.9 14.9 94 1030.3 8.3 W 13.0 0.0 0.0
01:44 15.9 14.9 94 1030.4 13.6 W 13.6 0.0 0.0
01:45 15.9 14.9 94 1030.3 6.0 NW 13.6 0.0 0.0
01:46 15.9 15.1 95 1030.4 9.2 NW 13.6 0.0 0.0
01:47 15.9 15.1 95 1030.4 8.3 E 13.6 0.0 0.0
01:48 15.9 15.1 95 1030.4 3.8 SE 13.6 0.0 0.0
01:49 15.9 15.1 95 1030.4 9.2 NW 13.6 0.0 0.0
01:50 15.9 15.1 95 1030.2 9.2 NW 13.6 0.0 0.0
01:52 15.9 15.1 95 1030.4 9.8 NW 13.6 0.0 0.0
01:53 15.9 15.1 95 1030.3 9.2 NW 13.6 0.0 0.0
01:54 16.0 15.2 95 1030.6 6.9 N 9.8 0.0 0.0
01:55 16.0 15.2 95 1030.2 7.6 NW 9.8 0.0 0.0
01:56 16.0 15.2 95 1030.5 11.4 NW 11.4 0.0 0.0
01:57 16.0 15.2 95 1030.5 11.4 NW 11.4 0.0 0.0
01:58 16.0 15.2 95 1030.2 10.7 W 11.4 0.0 0.0
01:59 16.0 15.2 95 1030.4 10.7 W 11.4 0.0 0.0
02:00 16.0 15.2 95 1030.4 10.7 W 11.4 0.0 0.0
02:01 16.0 15.2 95 1030.4 10.7 W 11.4 0.0 0.0
02:02 16.0 15.2 95 1030.4 10.7 W 11.4 0.0 0.0
02:03 16.0 15.2 95 1030.4 6.9 NW 11.4 0.0 0.0
02:04 16.0 15.2 95 1030.4 9.8 N 11.4 0.0 0.0
02:06 15.9 15.1 95 1030.4 6.9 N 11.4 0.0 0.0
02:07 15.9 15.1 95 1030.4 6.9 NE 10.7 0.0 0.0
02:08 15.9 15.1 95 1030.4 7.6 N 10.7 0.0 0.0
02:09 15.9 15.1 95 1030.2 9.2 WNW 10.7 0.0 0.0
02:10 15.9 15.1 95 1030.5 9.8 NW 10.7 0.0 0.0
02:11 15.9 15.1 95 1030.2 9.2 N 10.7 0.0 0.0
02:12 15.9 15.1 95 1030.4 9.2 NW 9.8 0.0 0.0
02:13 15.9 15.1 95 1030.4 7.6 WNW 9.8 0.0 0.0
02:14 15.9 15.1 95 1030.3 9.8 W 9.8 0.0 0.0
02:15 15.9 15.1 95 1030.3 8.3 NW 9.8 0.0 0.0
02:16 15.9 15.1 95 1030.4 8.3 NW 9.8 0.0 0.0
02:17 15.9 15.1 95 1030.3 9.2 NW 9.8 0.0 0.0
02:18 15.9 15.1 95 1030.2 13.0 NW 13.0 0.0 0.0
02:20 15.8 15.0 95 1030.3 9.2 NW 13.0 0.0 0.0
02:21 15.8 15.0 95 1030.3 8.3 NW 13.0 0.0 0.0
02:22 15.8 15.0 95 1030.4 5.4 NW 13.0 0.0 0.0
02:23 15.8 15.0 95 1030.4 7.6 NW 13.0 0.0 0.0
02:24 15.8 15.0 95 1030.2 9.2 W 13.0 0.0 0.0
02:25 15.8 15.0 95 1030.4 6.0 NW 13.0 0.0 0.0
02:26 15.8 15.0 95 1030.4 6.0 NW 13.0 0.0 0.0
02:27 15.8 15.0 95 1030.2 9.2 NW 13.0 0.0 0.0
02:28 15.8 15.0 95 1030.4 9.2 NW 9.8 0.0 0.0
02:29 15.8 15.0 95 1030.3 9.8 NW 9.8 0.0 0.0
02:30 15.8 15.2 96 1030.4 9.8 NW 9.8 0.0 0.0
02:31 15.8 15.2 96 1030.3 6.9 NW 9.8 0.0 0.0
02:32 15.8 15.2 96 1030.3 11.4 NW 11.4 0.0 0.0
02:33 15.8 15.2 96 1030.3 8.3 SE 11.4 0.0 0.0
02:35 15.8 15.2 96 1030.2 8.3 NE 12.1 0.0 0.0
02:36 15.8 15.2 96 1030.1 11.4 W 12.1 0.0 0.0
02:37 15.8 15.2 96 1030.3 6.0 NW 12.1 0.0 0.0
02:38 15.8 15.2 96 1030.4 8.3 NE 12.1 0.0 0.0
02:39 15.8 15.2 96 1030.3 7.6 SW 12.1 0.0 0.0
02:40 15.8 15.2 96 1030.3 9.2 NW 12.1 0.0 0.0
02:41 15.8 15.2 96 1030.3 9.2 NW 12.1 0.0 0.0
02:42 15.8 15.2 96 1030.3 13.0 W 13.0 0.0 0.0
02:43 15.8 15.2 96 1030.3 9.2 NW 13.0 0.0 0.0
02:44 15.8 15.2 96 1030.2 9.8 NW 13.0 0.0 0.0
02:45 15.8 15.2 96 1030.3 9.8 WNW 13.0 0.0 0.0
02:46 15.8 15.2 96 1030.4 10.7 NW 13.0 0.0 0.0
02:47 15.8 15.2 96 1030.3 11.4 N 13.0 0.0 0.0
02:49 15.8 15.2 96 1030.2 7.6 NW 13.0 0.0 0.0
02:50 15.8 15.2 96 1030.2 8.3 N 13.0 0.0 0.0
02:51 15.8 15.2 96 1030.5 8.3 N 13.0 0.0 0.0
02:52 15.8 15.2 96 1030.2 8.3 E 11.4 0.0 0.0
02:53 15.8 15.2 96 1030.3 8.3 S 11.4 0.0 0.0
02:54 15.8 15.2 96 1030.2 6.9 WNW 11.4 0.0 0.0
02:55 15.8 15.2 96 1030.3 9.8 NW 11.4 0.0 0.0
02:56 15.8 15.2 96 1030.2 9.8 NW 11.4 0.0 0.0
02:57 15.8 15.2 96 1030.4 9.2 N 11.4 0.0 0.0
02:58 15.7 15.1 96 1030.4 6.0 NW 9.8 0.0 0.0
02:59 15.7 15.1 96 1030.1 15.2 WNW 15.2 0.0 0.0
03:00 15.7 15.1 96 1030.5 15.2 NW 15.2 0.0 0.0
03:01 15.7 15.1 96 1030.1 15.2 NW 15.2 0.0 0.0
03:03 15.7 15.1 96 1030.2 8.3 NW 15.9 0.0 0.0
03:04 15.7 15.1 96 1030.5 9.8 NW 15.9 0.0 0.0
03:05 15.7 15.1 96 1030.4 9.8 NW 15.9 0.0 0.0
03:06 15.7 15.1 96 1030.4 6.9 N 15.9 0.0 0.0
03:07 15.7 15.1 96 1030.2 8.3 N 15.9 0.0 0.0
03:08 15.7 15.1 96 1030.2 6.9 NW 15.9 0.0 0.0
03:09 15.7 15.1 96 1030.2 6.9 NW 15.9 0.0 0.0
03:10 15.7 15.1 96 1030.4 13.6 W 15.9 0.0 0.0
03:11 15.7 15.1 96 1030.2 9.2 NW 15.9 0.0 0.0
03:12 15.7 15.1 96 1030.2 9.2 NW 15.9 0.0 0.0
03:13 15.7 15.1 96 1030.2 6.0 W 13.6 0.0 0.0
03:14 15.7 15.1 96 1030.1 10.7 NE 13.6 0.0 0.0
03:15 15.7 15.1 96 1030.2 13.0 NE 13.6 0.0 0.0
03:17 15.7 15.1 96 1030.2 7.6 NW 13.6 0.0 0.0
03:18 15.7 15.1 96 1030.1 7.6 N 13.6 0.0 0.0
03:19 15.7 15.1 96 1030.0 8.3 NW 13.6 0.0 0.0
03:20 15.7 15.1 96 1030.2 13.0 NW 13.6 0.0 0.0
03:21 15.7 15.1 96 1030.1 9.8 NW 13.6 0.0 0.0
03:22 15.7 15.1 96 1030.1 15.9 NW 15.9 0.0 0.0
03:23 15.7 15.1 96 1030.1 8.3 NW 15.9 0.0 0.0
03:24 15.7 15.1 96 1030.0 9.2 NW 15.9 0.0 0.0
03:25 15.7 15.1 96 1030.2 9.8 SW 15.9 0.0 0.0
03:26 15.7 15.1 96 1030.3 12.1 NE 15.9 0.0 0.0
03:27 15.7 15.1 96 1030.0 9.2 NW 15.9 0.0 0.0
03:28 15.7 15.1 96 1030.2 8.3 NW 15.9 0.0 0.0
03:29 15.7 15.1 96 1030.3 12.1 NW 15.9 0.0 0.0
03:31 15.7 15.1 96 1030.2 11.4 NW 15.9 0.0 0.0
03:32 15.7 15.1 96 1030.3 10.7 NW 15.9 0.0 0.0
03:33 15.7 15.1 96 1030.1 15.9 W 15.9 0.0 0.0
03:34 15.7 15.1 96 1030.4 8.3 NW 15.9 0.0 0.0
03:35 15.7 15.2 97 1030.3 8.3 NW 15.9 0.0 0.0
03:36 15.7 15.2 97 1030.3 5.4 NW 15.9 0.0 0.0
03:37 15.7 15.2 97 1030.3 5.4 NW 15.9 0.0 0.0
03:38 15.7 15.2 97 1030.3 13.6 WNW 15.9 0.0 0.0
03:39 15.7 15.2 97 1030.4 11.4 E 15.9 0.0 0.0
03:40 15.7 15.2 97 1030.3 9.2 W 15.9 0.0 0.0
03:41 15.7 15.2 97 1030.4 9.2 NW 15.9 0.0 0.0
03:42 15.7 15.2 97 1030.3 10.7 NW 15.9 0.0 0.0
03:43 15.7 15.2 97 1030.3 8.3 W 15.9 0.0 0.0
03:44 15.8 15.3 97 1030.1 9.2 NW 13.6 0.0 0.0
03:46 15.8 15.3 97 1030.2 6.9 N 13.6 0.0 0.0
03:47 15.8 15.3 97 1030.1 13.6 NW 13.6 0.0 0.0
03:48 15.8 15.3 97 1030.3 7.6 NE 13.6 0.0 0.0
03:49 15.8 15.3 97 1030.1 10.7 W 13.6 0.0 0.0
03:50 15.8 15.3 97 1030.1 10.7 N 13.6 0.0 0.0
03:51 15.8 15.3 97 1030.3 9.2 WSW 13.6 0.0 0.0
03:52 15.8 15.3 97 1030.1 9.2 WSW 13.6 0.0 0.0
03:53 15.8 15.3 97 1030.3 8.3 W 13.6 0.0 0.0
03:54 15.8 15.3 97 1029.9 6.0 NW 13.6 0.0 0.0
03:55 15.8 15.3 97 1030.1 8.3 NW 13.6 0.0 0.0
03:56 15.8 15.3 97 1030.4 9.2 NW 13.6 0.0 0.0
03:57 15.8 15.3 97 1030.1 9.2 NE 13.6 0.0 0.0
03:58 15.8 15.3 97 1030.4 6.0 WNW 13.6 0.0 0.0
03:59 15.8 15.3 97 1030.1 12.1 WNW 12.1 0.0 0.0
04:00 15.8 15.3 97 1030.2 12.1 NE 12.1 0.0 0.0
04:01 15.8 15.3 97 1030.2 12.1 NE 12.1 0.0 0.0
04:02 15.8 15.3 97 1030.2 12.1 NE 12.1 0.0 0.0
04:03 15.8 15.3 97 1030.2 12.1 NE 12.1 0.0 0.0
04:04 15.8 15.3 97 1030.2 12.1 NE 12.1 0.0 0.0
04:05 15.8 15.3 97 1030.2 12.1 NE 12.1 0.0 0.0
04:06 15.8 15.3 97 1030.5 12.1 NE 12.1 0.0 0.0
04:07 15.8 15.3 97 1030.3 8.3 N 12.1 0.0 0.0
04:08 15.8 15.3 97 1030.2 13.6 WNW 13.6 0.0 0.0
04:09 15.8 15.3 97 1030.0 12.1 WNW 13.6 0.0 0.0
04:10 15.8 15.3 97 1030.2 12.1 NW 13.6 0.0 0.0
04:11 15.8 15.3 97 1030.2 5.4 NW 13.6 0.0 0.0
04:12 15.8 15.3 97 1030.0 7.6 NW 13.6 0.0 0.0
04:14 15.8 15.3 97 1030.2 8.3 W 13.6 0.0 0.0
04:15 15.8 15.3 97 1030.3 8.3 NW 13.6 0.0 0.0
04:16 15.8 15.3 97 1030.0 11.4 N 13.6 0.0 0.0
04:17 15.8 15.3 97 1030.1 11.4 NW 13.6 0.0 0.0
04:18 15.8 15.3 97 1030.2 7.6 NW 12.1 0.0 0.0
04:19 15.8 15.3 97 1029.9 9.8 SW 12.1 0.0 0.0
04:20 15.8 15.3 97 1030.0 9.8 N 12.1 0.0 0.0
04:21 15.8 15.3 97 1030.3 6.0 NE 11.4 0.0 0.0
04:22 15.8 15.3 97 1030.1 10.7 W 11.4 0.0 0.0
04:23 15.8 15.3 97 1030.3 15.2 SW 15.2 0.0 0.0
04:24 15.8 15.3 97 1030.1 6.9 N 15.2 0.0 0.0
04:25 15.8 15.3 97 1030.1 5.4 N 15.2 0.0 0.0
04:26 15.8 15.3 97 1030.1 8.3 NW 15.2 0.0 0.0
04:28 15.8 15.3 97 1030.1 11.4 N 15.2 0.0 0.0
04:29 15.8 15.3 97 1030.1 5.4 N 15.2 0.0 0.0
04:30 15.8 15.3 97 1030.3 6.9 NW 15.2 0.0 0.0
04:31 15.8 15.3 97 1030.1 6.9 SW 15.2 0.0 0.0
04:32 15.8 15.3 97 1030.2 14.5 S 15.2 0.0 0.0
04:33 15.8 15.3 97 1030.2 14.5 S 15.2 0.0 0.0
04:34 15.8 15.3 97 1030.1 7.6 WNW 14.5 0.0 0.0
04:35 15.8 15.3 97 1030.1 9.2 E 14.5 0.0 0.0
04:36 15.8 15.3 97 1029.9 8.3 NW 14.5 0.0 0.0
04:37 15.8 15.3 97 1030.2 8.3 W 14.5 0.0 0.0
04:38 15.8 15.3 97 1030.2 8.3 SW 14.5 0.0 0.0
04:39 15.8 15.3 97 1030.2 7.6 W 14.5 0.0 0.0
04:40 15.8 15.3 97 1030.1 7.6 WNW 14.5 0.0 0.0
04:42 15.8 15.3 97 1030.3 11.4 NW 14.5 0.0 0.0
04:43 15.8 15.3 97 1030.0 9.2 NW 11.4 0.0 0.0
04:44 15.7 15.2 97 1030.0 10.7 NNE 11.4 0.0 0.0
04:45 15.7 15.2 97 1030.2 6.0 NW 11.4 0.0 0.0
04:46 15.7 15.2 97 1030.1 6.0 N 11.4 0.0 0.0
04:47 15.7 15.2 97 1030.2 8.3 NW 11.4 0.0 0.0
04:48 15.7 15.2 97 1030.2 12.1 N 12.1 0.0 0.0
04:49 15.7 15.2 97 1029.8 12.1 W 12.1 0.0 0.0
04:50 15.7 15.2 97 1030.1 9.8 NW 12.1 0.0 0.0
04:51 15.7 15.2 97 1030.1 6.9 W 12.1 0.0 0.0
04:52 15.7 15.2 97 1030.0 7.6 S 12.1 0.0 0.0
04:53 15.7 15.2 97 1029.8 7.6 NW 12.1 0.0 0.0
04:54 15.7 15.2 97 1030.0 6.0 NE 12.1 0.0 0.0
04:55 15.7 15.2 97 1030.1 9.2 NW 12.1 0.0 0.0
04:57 15.7 15.2 97 1030.2 7.6 W 13.0 0.0 0.0
04:58 15.7 15.2 97 1030.1 7.6 N 13.0 0.0 0.0
04:59 15.7 15.2 97 1030.2 6.9 NE 13.0 0.0 0.0
05:00 15.7 15.2 97 1030.1 5.4 NE 13.0 0.0 0.0
05:01 15.7 15.2 97 1030.1 5.4 NE 13.0 0.0 0.0
05:02 15.7 15.2 97 1030.0 5.4 NE 13.0 0.0 0.0
05:03 15.7 15.2 97 1030.0 5.4 NE 13.0 0.0 0.0
05:04 15.7 15.2 97 1030.1 5.4 NE 13.0 0.0 0.0
05:05 15.7 15.2 97 1030.0 5.4 NE 13.0 0.0 0.0
05:06 15.7 15.2 97 1030.1 5.4 NE 13.0 0.0 0.0
05:07 15.7 15.2 97 1030.0 4.5 SW 7.6 0.0 0.0
05:08 15.7 15.2 97 1029.9 4.5 NE 7.6 0.0 0.0
05:09 15.7 15.2 97 1030.0 6.0 NE 6.9 0.0 0.0
05:10 15.7 15.2 97 1029.8 9.2 SE 9.2 0.0 0.0
05:11 15.7 15.2 97 1030.1 7.6 SSE 9.2 0.0 0.0
05:13 15.7 15.2 97 1030.0 7.6 NNW 9.2 0.0 0.0
05:14 15.7 15.2 97 1030.0 9.8 E 9.8 0.0 0.0
05:15 15.7 15.2 97 1029.9 7.6 WNW 9.8 0.0 0.0
05:16 15.7 15.2 97 1030.2 12.1 NW 12.1 0.0 0.0
05:17 15.7 15.2 97 1030.1 9.2 NW 12.1 0.0 0.0
05:18 15.7 15.2 97 1030.1 9.2 NW 12.1 0.0 0.0
05:19 15.7 15.2 97 1029.9 5.4 N 12.1 0.0 0.0
05:20 15.7 15.2 97 1029.7 12.1 N 12.1 0.0 0.0
05:21 15.7 15.2 97 1029.9 9.2 WNW 12.1 0.0 0.0
05:22 15.7 15.2 97 1029.9 7.6 W 12.1 0.0 0.0
05:23 15.7 15.2 97 1030.0 12.1 NW 12.1 0.0 0.0
05:24 15.7 15.2 97 1029.7 12.1 NW 12.1 0.0 0.0
05:25 15.7 15.2 97 1029.8 12.1 NW 12.1 0.0 0.0
05:26 15.7 15.4 98 1029.7 7.6 N 12.1 0.0 0.0
05:28 15.7 15.4 98 1029.8 7.6 N 12.1 0.0 0.0
05:29 15.7 15.4 98 1030.1 7.6 N 12.1 0.0 0.0
05:30 15.7 15.4 98 1030.0 9.8 WNW 12.1 0.0 0.0
05:31 15.7 15.4 98 1029.8 11.4 NW 12.1 0.0 0.0
05:32 15.7 15.4 98 1030.2 8.3 W 12.1 0.0 0.0
05:33 15.7 15.4 98 1030.1 6.0 NW 12.1 0.0 0.0
05:34 15.7 15.4 98 1030.1 6.0 NW 12.1 0.0 0.0
05:35 15.7 15.4 98 1030.0 8.3 S 11.4 0.0 0.0
05:36 15.7 15.4 98 1030.1 9.2 NE 11.4 0.0 0.0
05:37 15.7 15.4 98 1029.9 7.6 W 11.4 0.0 0.0
05:38 15.7 15.4 98 1029.8 5.4 NE 11.4 0.0 0.0
05:39 15.7 15.4 98 1030.1 12.1 E 12.1 0.0 0.0
05:40 15.7 15.4 98 1029.8 7.6 S 12.1 0.0 0.0
05:41 15.7 15.4 98 1029.9 8.3 NW 12.1 0.0 0.0
05:43 15.7 15.4 98 1030.0 13.0 N 13.0 0.0 0.0
05:44 15.7 15.4 98 1029.9 9.2 SW 13.0 0.0 0.0
05:45 15.7 15.4 98 1030.0 6.0 NE 13.0 0.0 0.0
05:46 15.7 15.4 98 1029.8 6.9 NW 13.0 0.0 0.0
05:47 15.7 15.4 98 1030.2 9.8 NE 13.0 0.0 0.0
05:48 15.7 15.4 98 1029.8 4.5 N 13.0 0.0 0.0
05:49 15.7 15.4 98 1029.8 4.5 N 13.0 0.0 0.0
05:50 15.7 15.4 98 1029.7 7.6 NE 13.0 0.0 0.0
05:51 15.7 15.4 98 1029.9 7.6 SW 13.0 0.0 0.0
05:52 15.7 15.4 98 1029.9 8.3 N 13.0 0.0 0.0
05:53 15.7 15.4 98 1029.9 6.9 SW 13.0 0.0 0.0
05:54 15.7 15.4 98 1029.9 9.8 NE 9.8 0.0 0.0
05:55 15.7 15.4 98 1030.2 10.7 NE 11.4 0.0 0.0
05:56 15.7 15.4 98 1030.1 9.8 NW 11.4 0.0 0.0
05:58 15.7 15.4 98 1029.8 13.6 E 13.6 0.0 0.0
05:59 15.7 15.4 98 1030.2 9.2 N 13.6 0.0 0.0
06:00 15.7 15.4 98 1030.0 13.0 N 13.6 0.0 0.0
06:01 15.7 15.4 98 1029.9 9.8 NW 13.6 0.0 0.0
06:02 15.7 15.4 98 1030.0 8.3 W 13.6 0.0 0.0
06:03 15.7 15.4 98 1030.0 8.3 N 13.6 0.0 0.0
06:04 15.7 15.4 98 1030.0 10.7 NE 13.6 0.0 0.0
06:05 15.7 15.4 98 1029.9 13.0 NE 13.6 0.0 0.0
06:06 15.7 15.4 98 1029.9 13.0 N 13.6 0.0 0.0
06:07 15.7 15.4 98 1030.1 11.4 NW 13.6 0.0 0.0
06:08 15.7 15.4 98 1030.2 12.1 NW 13.6 0.0 0.0
06:09 15.7 15.4 98 1030.1 11.4 N 13.6 0.0 0.0
06:10 15.7 15.4 98 1030.1 11.4 N 13.6 0.0 0.0
06:11 15.7 15.4 98 1030.3 10.7 N 13.6 0.0 0.0
06:12 15.7 15.4 98 1030.1 10.7 NW 13.6 0.0 0.0
06:13 15.7 15.4 98 1030.0 13.0 NW 13.6 0.0 0.0
06:14 15.7 15.4 98 1030.4 9.2 NE 13.6 0.0 0.0
06:15 15.7 15.4 98 1030.4 5.4 NW 13.6 0.0 0.0
06:16 15.7 15.4 98 1030.6 9.8 NW 15.2 0.0 0.0
06:17 15.7 15.4 98 1030.2 4.5 WSW 15.2 0.0 0.0
06:18 15.7 15.4 98 1030.2 4.5 WSW 15.2 0.0 0.0
06:19 15.7 15.4 98 1030.3 5.4 N 15.2 0.0 0.0
06:20 15.7 15.4 98 1030.2 10.7 W 15.2 0.0 0.0
06:21 15.7 15.4 98 1030.3 11.4 N 15.2 0.0 0.0
06:22 15.7 15.4 98 1030.3 12.1 N 15.2 0.0 0.0
06:23 15.7 15.4 98 1030.4 6.0 N 15.2 0.0 0.0
06:24 15.7 15.4 98 1030.2 9.8 NE 15.2 0.0 0.0
06:25 15.7 15.4 98 1030.3 6.0 SW 15.2 0.0 0.0
06:27 15.7 15.4 98 1030.3 11.4 NW 14.5 0.0 0.0
06:28 15.7 15.4 98 1030.3 10.7 E 14.5 0.0 0.0
06:29 15.7 15.4 98 1030.5 6.9 N 14.5 0.0 0.0
06:30 15.7 15.4 98 1030.4 6.9 N 14.5 0.0 0.0
06:31 15.7 15.4 98 1030.1 11.4 N 14.5 0.0 0.0
06:32 15.8 15.5 98 1030.3 8.3 N 14.5 0.0 0.0
06:33 15.8 15.5 98 1030.3 8.3 N 11.4 0.0 0.0
06:34 15.8 15.5 98 1030.4 9.8 WNW 11.4 0.0 0.0
06:35 15.8 15.5 98 1030.2 10.7 W 13.0 0.0 0.0
06:36 15.8 15.5 98 1030.2 11.4 N 13.0 0.0 0.0
06:37 15.8 15.5 98 1030.4 7.6 NE 13.0 0.0 0.0
06:38 15.8 15.5 98 1030.3 6.9 S 13.0 0.0 0.0
06:39 15.8 15.5 98 1030.2 6.9 SW 13.0 0.0 0.0
06:41 15.8 15.5 98 1030.5 9.8 N 13.0 0.0 0.0
06:42 15.8 15.5 98 1030.3 8.3 N 13.0 0.0 0.0
06:43 15.8 15.5 98 1030.5 12.1 N 13.0 0.0 0.0
06:44 15.8 15.5 98 1030.4 6.0 NE 13.0 0.0 0.0
06:45 15.8 15.5 98 1030.3 12.1 NW 12.1 0.0 0.0
06:46 15.8 15.5 98 1030.4 9.8 N 12.1 0.0 0.0
06:47 15.8 15.5 98 1030.5 10.7 NNE 12.1 0.0 0.0
06:48 15.8 15.5 98 1030.5 10.7 N 12.1 0.0 0.0
06:49 15.8 15.5 98 1030.4 10.7 NE 12.1 0.0 0.0
06:50 15.8 15.5 98 1030.2 10.7 NE 12.1 0.0 0.0
06:51 15.8 15.5 98 1030.5 9.2 N 12.1 0.0 0.0
06:52 15.8 15.5 98 1030.4 9.2 NE 12.1 0.0 0.0
06:53 15.8 15.5 98 1030.6 7.6 N 12.1 0.0 0.0
06:55 15.8 15.5 98 1030.5 9.2 NE 12.1 0.0 0.0
06:56 15.8 15.5 98 1030.6 10.7 NW 10.7 0.0 0.0
06:57 15.8 15.5 98 1030.7 7.6 NE 10.7 0.0 0.0
06:58 15.8 15.5 98 1030.7 9.8 W 10.7 0.0 0.0
06:59 15.8 15.5 98 1030.5 10.7 N 10.7 0.0 0.0
07:00 15.8 15.5 98 1030.6 8.3 W 10.7 0.0 0.0
07:01 15.8 15.5 98 1030.6 8.3 W 10.7 0.0 0.0
07:02 15.8 15.5 98 1030.6 8.3 W 10.7 0.0 0.0
07:03 15.8 15.5 98 1030.5 8.3 W 10.7 0.0 0.0
07:04 15.8 15.5 98 1030.5 8.3 W 10.7 0.0 0.0
07:05 15.8 15.5 98 1030.6 8.3 W 10.7 0.0 0.0
07:06 15.8 15.5 98 1030.5 8.3 W 10.7 0.0 0.0
07:07 15.9 15.6 98 1030.8 8.3 WNW 13.0 0.0 0.0
07:08 15.9 15.6 98 1030.6 9.8 N 13.0 0.0 0.0
07:10 15.9 15.6 98 1030.7 8.3 S 13.0 0.0 0.0
07:11 15.9 15.4 97 1030.9 10.7 NE 13.0 0.0 0.0
07:12 15.9 15.4 97 1031.0 4.5 S 13.0 0.0 0.0
07:13 15.9 15.4 97 1030.8 5.4 NW 13.0 0.0 0.0
07:14 15.9 15.4 97 1031.0 8.3 NE 13.0 0.0 0.0
07:15 15.9 15.4 97 1030.8 8.3 NE 13.0 0.0 0.0
07:16 15.9 15.4 97 1030.8 9.8 N 13.0 0.0 0.0
07:17 15.9 15.4 97 1030.8 6.9 N 10.7 0.0 0.0
07:18 15.9 15.4 97 1030.8 10.7 NE 10.7 0.0 0.0
07:19 15.9 15.4 97 1030.8 9.2 N 10.7 0.0 0.0
07:20 15.9 15.4 97 1030.9 11.4 NW 11.4 0.0 0.0
07:21 15.9 15.4 97 1031.0 9.8 NNE 11.4 0.0 0.0
07:22 15.9 15.4 97 1031.0 13.0 N 13.0 0.0 0.0
07:23 15.9 15.4 97 1030.8 14.5 N 14.5 0.0 0.0
07:24 15.9 15.4 97 1030.9 9.8 NW 14.5 0.0 0.0
07:25 15.9 15.3 96 1030.8 9.8 N 14.5 0.0 0.0
07:26 15.9 15.3 96 1030.9 9.8 NW 14.5 0.0 0.0
07:27 15.9 15.3 96 1030.8 10.7 NW 14.5 0.0 0.0
07:28 15.9 15.3 96 1031.1 13.0 E 14.5 0.0 0.0
07:29 15.9 15.3 96 1031.0 9.8 W 14.5 0.0 0.0
07:30 15.9 15.3 96 1030.9 11.4 NE 14.5 0.0 0.0
07:31 15.9 15.3 96 1030.8 11.4 N 14.5 0.0 0.0
07:32 15.9 15.3 96 1030.9 10.7 NW 14.5 0.0 0.0
07:33 15.9 15.3 96 1031.1 12.1 NNW 14.5 0.0 0.0
07:34 15.9 15.3 96 1031.0 10.7 NE 13.0 0.0 0.0
07:35 15.9 15.3 96 1031.1 13.6 E 13.6 0.0 0.0
07:36 15.9 15.1 95 1031.0 11.4 SW 13.6 0.0 0.0
07:37 15.9 15.1 95 1031.1 10.7 NW 13.6 0.0 0.0
07:38 15.9 15.1 95 1031.2 8.3 N 13.6 0.0 0.0
07:40 15.9 15.1 95 1031.0 7.6 NNW 13.6 0.0 0.0
07:41 15.9 15.1 95 1031.0 11.4 W 13.6 0.0 0.0
07:42 15.9 15.1 95 1031.2 10.7 N 13.6 0.0 0.0
07:43 15.9 15.1 95 1031.3 10.7 NW 13.6 0.0 0.0
07:44 15.9 15.1 95 1031.1 12.1 N 13.6 0.0 0.0
07:45 15.9 15.1 95 1031.1 12.1 N 12.1 0.0 0.0
07:46 15.9 15.1 95 1031.1 12.1 NE 12.1 0.0 0.0
07:47 15.9 15.1 95 1031.1 15.2 N 15.2 0.0 0.0
07:48 15.9 14.9 94 1031.1 15.2 SW 15.2 0.0 0.0
07:49 15.9 14.9 94 1031.3 9.2 N 15.2 0.0 0.0
07:50 15.9 14.9 94 1031.1 9.2 N 15.2 0.0 0.0
07:51 15.9 14.9 94 1031.4 9.2 N 15.2 0.0 0.0
07:52 15.9 14.9 94 1031.2 5.4 NW 15.2 0.0 0.0
07:53 15.9 14.9 94 1031.2 8.3 W 15.2 0.0 0.0
07:55 15.9 14.9 94 1031.6 9.8 NW 15.2 0.0 0.0
07:56 15.9 14.9 94 1031.4 10.7 NW 15.2 0.0 0.0
07:57 15.9 14.9 94 1031.3 9.2 NE 15.2 0.0 0.0
07:58 15.9 14.9 94 1031.3 6.0 E 14.5 0.0 0.0
07:59 15.9 14.9 94 1031.5 13.6 W 14.5 0.0 0.0
08:00 15.9 14.9 94 1031.2 11.4 NE 14.5 0.0 0.0
08:01 15.9 14.9 94 1031.2 11.4 NE 14.5 0.0 0.0
08:02 15.9 14.8 93 1031.4 10.7 N 14.5 0.0 0.0
08:03 15.9 14.8 93 1031.3 9.2 N 14.5 0.0 0.0
08:04 15.9 14.8 93 1031.4 8.3 N 13.6 0.0 0.0
08:05 15.9 14.8 93 1031.4 10.7 NE 13.6 0.0 0.0
08:06 16.0 14.9 93 1031.4 10.7 N 13.6 0.0 0.0
08:07 16.0 14.9 93 1031.3 11.4 NE 13.6 0.0 0.0
08:08 16.0 14.9 93 1031.2 7.6 N 13.6 0.0 0.0
08:10 16.0 14.9 93 1031.4 9.2 N 11.4 0.0 0.0
08:11 16.0 14.9 93 1031.2 7.6 NW 11.4 0.0 0.0
08:12 16.0 14.9 93 1031.4 13.0 S 13.0 0.0 0.0
08:13 16.0 14.9 93 1031.4 11.4 NW 13.0 0.0 0.0
08:14 16.0 14.7 92 1031.4 10.7 N 13.0 0.0 0.0
08:15 16.0 14.7 92 1031.2 9.2 NE 13.0 0.0 0.0
08:16 16.0 14.7 92 1031.4 9.2 NW 13.0 0.0 0.0
08:17 16.0 14.7 92 1031.3 9.2 N 13.0 0.0 0.0
08:18 16.0 14.7 92 1031.4 6.0 NE 13.0 0.0 0.0
08:19 16.1 14.8 92 1031.3 6.9 N 13.0 0.0 0.0
08:20 16.1 14.8 92 1031.4 8.3 NE 13.0 0.0 0.0
08:21 16.1 14.8 92 1031.2 9.8 N 13.0 0.0 0.0
08:22 16.1 14.8 92 1031.5 9.2 NW 13.0 0.0 0.0
08:23 16.1 14.8 92 1031.3 13.6 NE 13.6 0.0 0.0
08:25 16.1 14.8 92 1031.5 13.0 SW 13.6 0.0 0.0
08:26 16.1 14.8 92 1031.3 13.0 NW 13.6 0.0 0.0
08:27 16.1 14.8 92 1031.2 7.6 SW 13.6 0.0 0.0
08:28 16.1 14.8 92 1031.5 14.5 N 14.5 0.0 0.0
08:29 16.1 14.8 92 1031.6 14.5 NW 14.5 0.0 0.0
08:30 16.1 14.8 92 1031.5 13.6 NNE 14.5 0.0 0.0
08:31 16.1 14.8 92 1031.4 13.6 NE 14.5 0.0 0.0
08:32 16.1 14.8 92 1031.6 10.7 N 14.5 0.0 0.0
08:33 16.1 14.8 92 1031.6 6.0 NW 14.5 0.0 0.0
08:34 16.2 14.9 92 1031.4 13.0 NW 14.5 0.0 0.0
08:35 16.2 14.9 92 1031.4 8.3 N 14.5 0.0 0.0
08:36 16.2 14.9 92 1031.5 10.7 NW 14.5 0.0 0.0
08:37 16.2 14.9 92 1031.6 10.7 N 14.5 0.0 0.0
08:38 16.2 14.7 91 1031.4 9.8 N 14.5 0.0 0.0
08:40 16.2 14.7 91 1031.8 12.1 N 16.8 0.0 0.0
08:41 16.2 14.7 91 1031.7 7.6 N 16.8 0.0 0.0
08:42 16.2 14.7 91 1031.5 6.0 NW 16.8 0.0 0.0
08:43 16.2 14.7 91 1031.5 6.0 N 16.8 0.0 0.0
08:44 16.2 14.7 91 1031.5 9.8 NW 16.8 0.0 0.0
08:45 16.2 14.7 91 1031.6 9.2 N 16.8 0.0 0.0
08:46 16.2 14.7 91 1031.4 9.8 SW 16.8 0.0 0.0
08:47 16.3 14.8 91 1031.6 8.3 N 16.8 0.0 0.0
08:48 16.3 14.8 91 1031.5 12.1 NW 16.8 0.0 0.0
08:49 16.3 14.8 91 1031.7 6.9 NW 16.8 0.0 0.0
08:50 16.3 14.8 91 1031.7 9.8 NE 16.8 0.0 0.0
08:51 16.3 14.8 91 1031.8 9.8 E 12.1 0.0 0.0
08:52 16.3 14.8 91 1031.6 12.1 WNW 12.1 0.0 0.0
08:53 16.3 14.8 91 1031.6 12.1 NW 12.1 0.0 0.0
08:54 16.4 14.9 91 1031.9 11.4 S 12.1 0.0 0.0
08:56 16.4 14.9 91 1031.6 10.7 N 12.1 0.0 0.0
08:57 16.4 14.9 91 1031.7 9.8 NW 12.1 0.0 0.0
08:58 16.4 14.9 91 1031.6 10.7 NW 12.1 0.0 0.0
08:59 16.4 14.9 91 1031.8 10.7 N 12.1 0.0 0.0
09:00 16.4 14.9 91 1031.6 7.6 NW 12.1 0.0 0.0
09:01 16.4 14.9 91 1031.5 7.6 NW 12.1 0.0 0.0
09:02 16.4 14.9 91 1031.8 7.6 NW 12.1 0.0 0.0
09:03 16.4 14.9 91 1031.8 7.6 NW 11.4 0.0 0.0
09:04 16.4 14.9 91 1031.6 7.6 NW 11.4 0.0 0.0
09:05 16.4 14.9 91 1031.6 7.6 NW 10.7 0.0 0.0
09:06 16.5 14.9 90 1031.8 7.6 NW 14.5 0.0 0.0
09:07 16.5 14.9 90 1031.7 9.8 W 14.5 0.0 0.0
09:08 16.5 14.9 90 1031.9 9.8 N 14.5 0.0 0.0
09:09 16.5 14.9 90 1031.8 11.4 N 14.5 0.0 0.0
09:10 16.5 14.9 90 1031.7 10.7 NW 14.5 0.0 0.0
09:11 16.5 14.9 90 1031.8 8.3 N 14.5 0.0 0.0
09:12 16.5 14.9 90 1031.6 8.3 N 14.5 0.0 0.0
09:13 16.5 14.9 90 1031.6 10.7 N 14.5 0.0 0.0
09:14 16.5 14.9 90 1031.6 10.7 NW 14.5 0.0 0.0
09:16 16.6 15.0 90 1031.8 9.2 N 11.4 0.0 0.0
09:17 16.6 15.0 90 1031.7 15.2 N 15.2 0.0 0.0
09:18 16.6 15.0 90 1031.4 13.0 N 15.2 0.0 0.0
09:19 16.6 15.0 90 1031.4 7.6 N 15.2 0.0 0.0
09:20 16.7 15.1 90 1031.5 13.0 NW 15.2 0.0 0.0
09:21 16.7 15.1 90 1031.6 13.0 NE 15.2 0.0 0.0
09:22 16.8 15.2 90 1031.7 11.4 N 15.2 0.0 0.0
09:23 16.8 15.2 90 1031.6 11.4 N 15.2 0.0 0.0
09:24 16.9 15.3 90 1031.6 13.6 N 15.2 0.0 0.0
09:25 16.9 15.3 90 1031.8 18.3 N 18.3 0.0 0.0
09:26 16.9 15.3 90 1031.6 11.4 NE 18.3 0.0 0.0
09:27 17.0 15.4 90 1031.6 8.3 N 18.3 0.0 0.0
09:28 17.0 15.4 90 1031.7 12.1 NE 18.3 0.0 0.0
09:29 17.0 15.4 90 1031.7 13.0 W 18.3 0.0 0.0
09:30 17.0 15.4 90 1031.5 14.5 N 18.3 0.0 0.0
09:31 17.0 15.2 89 1031.7 11.4 N 18.3 0.0 0.0
09:32 17.0 15.2 89 1031.6 11.4 NW 18.3 0.0 0.0
09:33 17.0 15.2 89 1031.4 9.2 N 18.3 0.0 0.0
09:34 17.0 15.2 89 1031.5 12.1 N 18.3 0.0 0.0
09:35 17.0 15.2 89 1031.7 11.4 N 14.5 0.0 0.0
09:36 17.1 15.3 89 1031.7 12.1 NW 14.5 0.0 0.0
09:37 17.0 15.2 89 1031.6 12.1 NE 14.5 0.0 0.0
09:38 17.0 15.2 89 1031.7 13.0 NW 14.5 0.0 0.0
09:39 17.0 15.2 89 1031.7 11.4 NNW 14.5 0.0 0.0
09:40 17.0 15.2 89 1031.8 9.8 W 14.5 0.0 0.0
09:41 17.0 15.2 89 1031.8 9.8 W 13.0 0.0 0.0
09:42 17.0 15.2 89 1031.7 13.6 N 13.6 0.0 0.0
09:43 17.0 15.2 89 1031.7 14.5 W 14.5 0.0 0.0
09:44 17.0 15.2 89 1031.5 14.5 NW 14.5 0.0 0.0
09:45 17.0 15.2 89 1031.7 9.8 N 14.5 0.0 0.0
09:46 17.0 15.2 89 1031.5 9.8 NW 14.5 0.0 0.0
09:47 17.0 15.0 88 1031.7 9.8 NW 14.5 0.0 0.0
09:48 17.1 15.1 88 1031.7 9.2 SE 14.5 0.0 0.0
09:49 17.1 15.1 88 1031.6 13.0 NW 14.5 0.0 0.0
09:50 17.1 15.1 88 1031.8 13.0 NW 14.5 0.0 0.0
09:51 17.1 15.1 88 1031.9 11.4 NE 14.5 0.0 0.0
09:52 17.1 15.1 88 1031.5 9.8 N 14.5 0.0 0.0
09:53 17.1 15.1 88 1031.7 12.1 N 14.5 0.0 0.0
09:54 17.2 15.2 88 1031.8 12.1 NW 13.0 0.0 0.0
09:55 17.2 15.0 87 1031.7 10.7 N 13.0 0.0 0.0
09:56 17.2 15.0 87 1031.8 9.2 NE 13.0 0.0 0.0
09:57 17.3 15.1 87 1031.6 9.8 S 13.0 0.0 0.0
09:58 17.4 15.4 88 1031.8 9.2 W 13.0 0.0 0.0
09:59 17.5 14.8 84 1031.6 13.6 N 13.6 0.0 0.0
10:00 17.5 14.8 84 1031.7 15.2 N 15.2 0.0 0.0
10:01 17.5 14.8 84 1031.7 15.2 N 15.2 0.0 0.0
10:02 17.6 14.7 83 1031.9 15.2 NW 15.2 0.0 0.0
10:03 17.6 14.7 83 1031.6 12.1 E 15.2 0.0 0.0
10:04 17.6 14.7 83 1031.9 9.8 N 15.2 0.0 0.0
10:05 17.6 14.5 82 1031.4 13.6 N 15.2 0.0 0.0
10:06 17.6 14.5 82 1031.5 11.4 NW 15.2 0.0 0.0
10:07 17.6 14.5 82 1031.6 15.9 NW 15.9 0.0 0.0
10:08 17.6 14.5 82 1031.6 11.4 NE 15.9 0.0 0.0
10:09 17.6 14.5 82 1031.6 8.3 NW 15.9 0.0 0.0
10:10 17.6 14.5 82 1031.5 11.4 NW 15.9 0.0 0.0
10:11 17.6 14.5 82 1031.8 8.3 SE 15.9 0.0 0.0
10:12 17.7 14.6 82 1031.8 7.6 N 15.9 0.0 0.0
10:13 17.7 14.6 82 1031.7 9.8 NE 15.9 0.0 0.0
10:14 17.8 14.7 82 1031.8 8.3 N 15.9 0.0 0.0
10:15 17.8 14.7 82 1031.9 10.7 N 15.9 0.0 0.0
10:16 17.8 14.7 82 1031.9 10.7 N 15.9 0.0 0.0
10:17 17.8 14.7 82 1031.7 12.1 N 15.9 0.0 0.0
10:18 17.8 14.7 82 1032.1 13.0 N 15.9 0.0 0.0
10:19 17.8 14.7 82 1031.9 11.4 N 13.0 0.0 0.0
10:20 17.8 14.7 82 1031.7 11.4 W 13.0 0.0 0.0
10:21 17.7 14.6 82 1032.0 7.6 N 13.0 0.0 0.0
10:22 17.8 14.7 82 1031.9 12.1 N 13.0 0.0 0.0
10:23 17.8 14.7 82 1031.9 12.1 NE 13.0 0.0 0.0
10:24 17.9 14.8 82 1031.8 8.3 N 13.0 0.0 0.0
10:25 17.9 14.8 82 1032.0 6.9 N 13.0 0.0 0.0
10:26 17.9 14.8 82 1031.7 12.1 NW 13.0 0.0 0.0
10:27 17.9 14.8 82 1032.0 10.7 E 13.0 0.0 0.0
10:28 17.9 14.8 82 1031.8 12.1 N 13.0 0.0 0.0
10:29 17.9 14.8 82 1031.9 9.2 W 12.1 0.0 0.0
10:30 17.9 14.6 81 1032.0 9.2 W 12.1 0.0 0.0
10:31 17.9 14.6 81 1032.1 9.8 S 12.1 0.0 0.0
10:32 17.9 14.6 81 1032.3 10.7 NW 12.1 0.0 0.0
10:33 17.9 14.6 81 1032.2 9.8 N 12.1 0.0 0.0
10:34 17.9 14.6 81 1032.0 9.2 NW 14.5 0.0 0.0
10:35 17.9 14.6 81 1032.0 11.4 N 14.5 0.0 0.0
10:37 17.8 14.5 81 1032.0 9.2 NE 14.5 0.0 0.0
10:38 17.8 14.5 81 1032.1 6.9 NE 14.5 0.0 0.0
10:39 17.8 14.5 81 1032.1 6.9 NE 14.5 0.0 0.0
10:40 17.9 14.6 81 1032.1 10.7 NW 14.5 0.0 0.0
10:41 17.9 14.6 81 1032.2 11.4 NE 14.5 0.0 0.0
10:42 17.9 14.6 81 1032.1 11.4 NW 14.5 0.0 0.0
10:43 18.0 14.7 81 1032.1 10.7 NW 14.5 0.0 0.0
10:44 18.0 14.7 81 1032.3 7.6 NW 13.6 0.0 0.0
10:45 18.0 14.7 81 1032.3 7.6 NW 13.6 0.0 0.0
10:46 18.1 15.0 82 1032.1 9.2 N 13.6 0.0 0.0
10:47 18.1 15.0 82 1032.3 9.2 NW 11.4 0.0 0.0
10:48 18.1 14.8 81 1031.9 9.8 NW 11.4 0.0 0.0
10:49 18.1 14.8 81 1032.1 10.7 NW 11.4 0.0 0.0
10:50 18.2 14.9 81 1032.1 9.8 NNE 11.4 0.0 0.0
10:51 18.2 14.9 81 1032.0 12.1 NW 12.1 0.0 0.0
10:52 18.2 14.9 81 1032.3 13.6 W 13.6 0.0 0.0
10:54 18.1 14.8 81 1032.0 12.1 NW 13.6 0.0 0.0
10:55 18.1 14.8 81 1032.2 9.8 S 13.6 0.0 0.0
10:56 18.0 14.7 81 1032.2 10.7 W 13.6 0.0 0.0
10:57 18.1 14.8 81 1032.3 8.3 E 13.6 0.0 0.0
10:58 18.1 14.8 81 1032.1 8.3 NE 13.6 0.0 0.0
10:59 18.1 14.8 81 1032.0 8.3 NW 13.6 0.0 0.0
11:00 18.1 14.8 81 1032.1 9.8 N 13.6 0.0 0.0
11:01 18.1 14.8 81 1032.1 9.8 N 13.6 0.0 0.0
11:02 18.1 14.8 81 1031.9 9.8 N 13.6 0.0 0.0
11:03 18.1 14.8 81 1032.1 9.8 N 13.6 0.0 0.0
11:04 18.1 14.8 81 1031.9 9.8 N 12.1 0.0 0.0
11:05 18.1 14.8 81 1032.1 9.8 N 10.7 0.0 0.0
11:06 18.6 15.3 81 1032.1 9.2 N 14.5 0.0 0.0
11:07 18.7 15.4 81 1032.1 9.8 E 14.5 0.0 0.0
11:08 18.8 15.5 81 1031.9 13.6 N 14.5 0.0 0.0
11:10 18.9 15.4 80 1032.1 12.1 NE 14.5 0.0 0.0
11:11 18.9 15.4 80 1032.0 13.0 W 14.5 0.0 0.0
11:12 18.8 15.3 80 1032.2 12.1 N 14.5 0.0 0.0
11:13 18.9 15.4 80 1032.1 11.4 W 14.5 0.0 0.0
11:14 18.9 15.4 80 1032.1 6.9 SW 14.5 0.0 0.0
11:15 19.0 15.5 80 1032.1 10.7 N 14.5 0.0 0.0
11:16 19.0 15.3 79 1032.2 13.6 SW 13.6 0.0 0.0
11:17 19.0 15.3 79 1032.3 13.6 SW 13.6 0.0 0.0
11:18 19.2 15.7 80 1032.2 11.4 NW 13.6 0.0 0.0
11:19 19.2 15.7 80 1032.1 11.4 SE 13.6 0.0 0.0
11:20 19.2 15.5 79 1032.3 13.6 NE 13.6 0.0 0.0
11:21 19.2 15.5 79 1032.2 12.1 NE 13.6 0.0 0.0
11:22 19.2 15.5 79 1032.4 8.3 NW 13.6 0.0 0.0
11:23 19.2 15.5 79 1032.5 9.8 NE 13.6 0.0 0.0
11:24 19.2 15.5 79 1032.4 9.8 NE 13.6 0.0 0.0
11:25 19.3 15.6 79 1032.4 7.6 NW 13.6 0.0 0.0
11:26 19.5 15.8 79 1032.7 12.1 N 13.6 0.0 0.0
11:27 19.5 15.8 79 1032.4 9.2 NW 13.6 0.0 0.0
11:29 19.7 16.0 79 1032.5 9.8 N 13.6 0.0 0.0
11:30 19.7 15.8 78 1032.4 8.3 N 13.0 0.0 0.0
11:31 19.7 15.6 77 1032.4 9.2 NE 13.0 0.0 0.0
11:32 19.7 15.6 77 1032.6 8.3 NE 13.0 0.0 0.0
11:33 19.7 15.4 76 1032.7 9.8 N 13.0 0.0 0.0
11:34 19.6 15.3 76 1032.5 15.9 N 15.9 0.0 0.0
11:35 19.6 15.3 76 1032.9 9.2 N 15.9 0.0 0.0
11:36 19.6 15.3 76 1032.8 9.8 NE 15.9 0.0 0.0
11:37 19.6 15.3 76 1032.7 10.7 N 15.9 0.0 0.0
11:38 19.6 15.3 76 1032.9 9.8 NE 15.9 0.0 0.0
11:39 19.5 15.0 75 1032.7 7.6 N 15.9 0.0 0.0
11:40 19.5 15.0 75 1032.8 7.6 W 15.9 0.0 0.0
11:41 19.4 14.9 75 1032.9 4.5 NE 15.9 0.0 0.0
11:42 19.4 15.1 76 1032.9 9.2 N 15.9 0.0 0.0
11:43 19.3 15.0 76 1033.0 9.2 N 15.9 0.0 0.0
11:44 19.3 15.0 76 1032.9 7.6 N 15.9 0.0 0.0
11:46 19.3 15.0 76 1033.0 9.2 N 15.2 0.0 0.0
11:47 19.3 15.0 76 1032.9 9.2 NE 15.2 0.0 0.0
11:48 19.2 14.9 76 1032.9 6.9 N 15.2 0.0 0.0
11:49 19.2 14.9 76 1032.9 6.0 E 15.2 0.0 0.0
11:50 19.2 14.9 76 1032.9 6.0 NW 15.2 0.0 0.0
11:51 19.2 15.1 77 1033.0 6.0 WNW 15.2 0.0 0.0
11:52 19.2 15.1 77 1033.1 11.4 N 15.2 0.0 0.0
11:53 19.2 15.1 77 1033.1 11.4 N 15.2 0.0 0.0
11:54 19.5 15.8 79 1033.1 10.7 N 15.2 0.0 0.0
11:55 19.6 15.9 79 1033.0 10.7 NE 15.2 0.0 0.0
11:56 19.6 15.9 79 1033.1 9.8 NW 11.4 0.0 0.0
11:57 19.7 15.6 77 1033.0 9.2 NE 11.4 0.0 0.0
11:58 19.6 15.5 77 1033.2 11.4 N 11.4 0.0 0.0
11:59 19.6 15.3 76 1033.0 9.2 N 11.4 0.0 0.0
12:00 19.6 15.3 76 1033.0 11.4 N 11.4 0.0 0.0
12:01 19.6 15.3 76 1033.1 11.4 N 11.4 0.0 0.0
12:03 19.6 15.3 76 1033.1 11.4 N 11.4 0.0 0.0
12:04 19.6 15.3 76 1033.1 11.4 N 11.4 0.0 0.0
12:05 19.7 15.6 77 1033.1 13.6 SE 13.6 0.0 0.0
12:06 19.8 15.9 78 1033.1 8.3 N 13.6 0.0 0.0
12:07 19.8 15.7 77 1033.0 13.0 N 13.6 0.0 0.0
12:08 20.0 15.9 77 1033.1 7.6 N 13.6 0.0 0.0
12:09 20.0 15.9 77 1033.1 7.6 N 13.6 0.0 0.0
12:10 19.9 15.4 75 1033.1 9.2 N 13.6 0.0 0.0
12:11 19.9 15.4 75 1033.2 7.6 NW 13.6 0.0 0.0
12:12 19.9 15.4 75 1033.2 9.2 NW 13.6 0.0 0.0
12:13 19.9 15.4 75 1033.2 8.3 E 13.6 0.0 0.0
12:14 20.0 15.4 75 1033.2 9.8 N 13.6 0.0 0.0
12:15 20.0 15.7 76 1033.1 11.4 NW 13.6 0.0 0.0
12:16 20.1 15.8 76 1033.1 13.6 W 13.6 0.0 0.0
12:18 20.2 15.6 75 1033.0 14.5 N 14.5 0.0 0.0
12:19 20.3 15.7 75 1033.1 14.5 E 14.5 0.0 0.0
12:20 20.3 15.7 75 1033.0 9.2 NE 14.5 0.0 0.0
12:21 20.3 15.7 75 1032.9 13.0 N 14.5 0.0 0.0
12:22 20.4 15.8 75 1032.9 8.3 NE 14.5 0.0 0.0
12:23 20.4 15.8 75 1033.1 8.3 N 14.5 0.0 0.0
12:24 20.5 15.9 75 1032.9 9.2 NW 14.5 0.0 0.0
12:25 20.5 15.9 75 1032.9 9.2 NW 14.5 0.0 0.0
12:26 20.6 15.8 74 1032.9 8.3 N 14.5 0.0 0.0
12:27 20.7 15.9 74 1033.0 6.9 SW 14.5 0.0 0.0
12:28 20.7 15.7 73 1033.2 9.8 N 14.5 0.0 0.0
12:29 20.7 15.7 73 1032.9 12.1 NE 14.5 0.0 0.0
12:30 20.8 15.8 73 1033.1 9.8 NW 13.0 0.0 0.0
12:31 20.8 15.8 73 1033.0 9.8 NW 13.0 0.0 0.0
12:32 20.8 15.8 73 1032.8 12.1 W 12.1 0.0 0.0
12:33 20.8 15.8 73 1033.1 15.9 N 15.9 0.0 0.0
12:34 20.8 15.6 72 1032.9 14.5 NE 15.9 0.0 0.0
12:35 20.7 15.5 72 1032.9 13.6 W 15.9 0.0 0.0
12:36 20.6 15.4 72 1032.8 13.6 W 15.9 0.0 0.0
12:37 20.6 15.4 72 1032.7 13.0 N 15.9 0.0 0.0
12:38 20.6 15.4 72 1032.8 13.0 N 15.9 0.0 0.0
12:39 20.5 15.3 72 1032.8 13.0 NW 15.9 0.0 0.0
12:40 20.5 15.5 73 1032.8 11.4 NW 15.9 0.0 0.0
12:41 20.5 15.5 73 1032.8 11.4 NNE 15.9 0.0 0.0
12:42 20.6 15.6 73 1032.8 10.7 N 15.9 0.0 0.0
12:43 20.6 15.6 73 1032.9 10.7 N 14.5 0.0 0.0
12:44 20.6 15.8 74 1032.8 12.1 N 14.5 0.0 0.0
12:45 20.7 15.7 73 1032.9 12.1 N 13.6 0.0 0.0
12:46 20.7 15.7 73 1032.7 15.2 SW 15.2 0.0 0.0
12:47 20.7 15.5 72 1032.8 13.6 N 15.2 0.0 0.0
12:48 20.6 15.4 72 1032.8 11.4 NW 15.2 0.0 0.0
12:49 20.6 15.4 72 1032.9 10.7 NE 15.2 0.0 0.0
12:50 20.6 15.6 73 1032.8 9.2 N 15.2 0.0 0.0
12:51 20.6 15.6 73 1032.9 9.2 N 15.2 0.0 0.0
12:53 20.7 15.5 72 1032.8 13.0 N 15.2 0.0 0.0
12:54 20.7 15.7 73 1032.7 10.7 NE 15.2 0.0 0.0
12:55 20.7 15.7 73 1033.0 12.1 N 15.2 0.0 0.0
12:56 20.7 15.7 73 1032.7 10.7 NW 15.2 0.0 0.0
12:57 20.7 15.7 73 1033.0 11.4 NW 13.0 0.0 0.0
12:58 20.7 15.7 73 1032.8 11.4 W 13.0 0.0 0.0
12:59 20.7 15.7 73 1032.6 11.4 NW 13.0 0.0 0.0
13:00 20.7 15.7 73 1032.8 10.7 W 13.0 0.0 0.0
13:01 20.7 15.7 73 1032.8 10.7 W 13.0 0.0 0.0
13:02 20.7 15.7 73 1032.7 10.7 W 13.0 0.0 0.0
13:03 20.7 15.7 73 1032.8 10.7 W 13.0 0.0 0.0
13:04 20.7 15.7 73 1032.8 10.7 W 12.1 0.0 0.0
13:05 20.7 15.7 73 1032.7 10.7 W 12.1 0.0 0.0
13:06 20.7 15.7 73 1032.6 13.0 N 13.6 0.0 0.0
13:07 20.7 15.7 73 1032.7 10.7 NW 13.6 0.0 0.0
13:08 20.7 15.7 73 1032.5 9.2 NE 13.6 0.0 0.0
13:09 20.7 15.7 73 1032.7 9.2 NW 13.6 0.0 0.0
13:10 20.7 15.7 73 1032.6 7.6 NW 13.6 0.0 0.0
13:12 20.7 15.7 73 1032.8 15.9 NW 15.9 0.0 0.0
13:13 20.8 15.8 73 1032.8 9.2 N 15.9 0.0 0.0
13:14 20.8 15.8 73 1032.7 9.2 N 15.9 0.0 0.0
13:16 20.7 15.7 73 1032.8 13.0 NW 15.9 0.0 0.0
13:17 20.6 15.6 73 1032.7 12.1 W 15.9 0.0 0.0
13:18 20.6 15.8 74 1032.5 10.7 SE 15.9 0.0 0.0
13:19 20.6 15.6 73 1032.5 12.1 E 15.9 0.0 0.0
13:21 20.6 15.6 73 1032.8 13.0 NW 15.9 0.0 0.0
13:22 20.5 15.5 73 1032.8 13.0 W 15.9 0.0 0.0
13:23 20.5 15.5 73 1032.7 11.4 NE 13.0 0.0 0.0
13:24 20.5 15.5 73 1032.7 14.5 N 14.5 0.0 0.0
13:25 20.5 15.5 73 1032.7 10.7 NW 14.5 0.0 0.0
13:26 20.6 15.6 73 1032.8 9.8 NW 14.5 0.0 0.0
13:27 20.6 15.6 73 1032.9 10.7 N 14.5 0.0 0.0
13:28 20.6 15.6 73 1032.9 9.8 NW 14.5 0.0 0.0
13:29 20.7 15.7 73 1032.8 9.2 NW 14.5 0.0 0.0
13:30 20.7 15.7 73 1032.8 7.6 W 14.5 0.0 0.0
13:31 20.7 15.7 73 1033.1 7.6 W 14.5 0.0 0.0
13:32 20.8 15.6 72 1033.1 14.5 W 14.5 0.0 0.0
13:33 20.7 15.5 72 1032.8 12.1 SSE 14.5 0.0 0.0
13:34 20.7 15.7 73 1032.8 6.9 NW 14.5 0.0 0.0
13:35 20.8 15.8 73 1033.0 9.8 N 14.5 0.0 0.0
13:36 20.8 15.8 73 1033.0 8.3 NE 14.5 0.0 0.0
13:37 20.9 15.9 73 1033.1 13.0 NE 14.5 0.0 0.0
13:39 20.9 15.7 72 1033.1 13.0 NW 14.5 0.0 0.0
13:40 20.9 15.7 72 1033.3 10.7 NW 14.5 0.0 0.0
13:41 20.9 15.7 72 1033.1 10.7 W 14.5 0.0 0.0
13:42 20.9 15.7 72 1033.0 9.8 NW 13.0 0.0 0.0
13:43 20.9 15.7 72 1033.0 13.0 W 13.0 0.0 0.0
13:44 20.9 15.7 72 1033.1 9.8 NE 13.0 0.0 0.0
13:45 20.9 15.7 72 1033.3 12.1 NE 13.0 0.0 0.0
13:46 20.9 15.7 72 1033.0 14.5 E 14.5 0.0 0.0
13:47 20.9 15.7 72 1033.0 14.5 N 14.5 0.0 0.0
13:48 20.8 15.4 71 1033.1 9.2 N 14.5 0.0 0.0
13:49 20.8 15.6 72 1033.1 10.7 W 14.5 0.0 0.0
13:50 20.8 15.6 72 1033.0 13.0 E 14.5 0.0 0.0
13:51 20.7 15.5 72 1033.2 11.4 W 14.5 0.0 0.0
13:52 20.7 15.5 72 1033.2 11.4 NE 14.5 0.0 0.0
13:53 20.7 15.5 72 1033.1 11.4 NE 14.5 0.0 0.0
13:55 20.7 15.5 72 1033.1 13.0 NW 14.5 0.0 0.0
13:56 20.6 15.4 72 1033.3 7.6 W 14.5 0.0 0.0
13:57 20.6 15.4 72 1033.2 7.6 W 14.5 0.0 0.0
13:58 20.6 15.4 72 1033.2 7.6 W 13.0 0.0 0.0
13:59 20.6 15.4 72 1033.0 7.6 W 13.0 0.0 0.0
14:00 20.6 15.4 72 1033.0 7.6 W 13.0 0.0 0.0
14:01 20.6 15.4 72 1033.2 7.6 W 13.0 0.0 0.0
14:02 20.8 15.8 73 1033.1 10.7 N 13.0 0.0 0.0
14:03 20.8 15.8 73 1033.1 10.7 N 13.0 0.0 0.0
14:04 20.9 15.9 73 1033.1 8.3 SE 13.0 0.0 0.0
14:05 20.9 15.7 72 1033.1 14.5 NW 14.5 0.0 0.0
14:06 20.9 15.7 72 1033.0 14.5 NW 14.5 0.0 0.0
14:07 20.9 15.7 72 1033.2 9.8 N 14.5 0.0 0.0
14:08 20.9 15.7 72 1033.3 9.8 N 14.5 0.0 0.0
14:09 20.9 15.5 71 1033.2 13.0 WNW 14.5 0.0 0.0
14:12 20.7 15.3 71 1033.5 9.2 NW 15.2 0.0 0.0
14:13 20.7 15.3 71 1033.3 9.2 SW 15.2 0.0 0.0
14:14 20.7 15.5 72 1033.1 12.1 N 15.2 0.0 0.0
14:15 20.7 15.5 72 1033.1 12.1 N 15.2 0.0 0.0
14:16 20.7 15.3 71 1033.4 13.6 NW 15.2 0.0 0.0
14:17 20.7 15.3 71 1033.1 13.6 NW 15.2 0.0 0.0
14:18 20.6 15.2 71 1033.4 12.1 N 15.2 0.0 0.0
14:19 20.6 15.2 71 1033.2 9.8 N 15.2 0.0 0.0
14:20 20.6 15.2 71 1033.2 9.8 N 13.6 0.0 0.0
14:21 20.6 15.4 72 1033.2 14.5 N 14.5 0.0 0.0
14:22 20.7 15.7 73 1033.3 8.3 NW 14.5 0.0 0.0
14:23 20.7 15.7 73 1033.2 8.3 NW 14.5 0.0 0.0
14:24 20.7 15.7 73 1033.2 8.3 NW 14.5 0.0 0.0
14:25 20.8 15.6 72 1033.3 9.8 N 14.5 0.0 0.0
14:26 20.8 15.6 72 1033.3 9.8 N 14.5 0.0 0.0
14:28 20.8 15.6 72 1033.3 9.2 NE 14.5 0.0 0.0
14:29 20.8 15.6 72 1033.0 13.6 NW 14.5 0.0 0.0
14:30 20.8 15.6 72 1033.2 13.6 NE 14.5 0.0 0.0
14:31 20.8 15.6 72 1033.3 13.6 NE 14.5 0.0 0.0
14:32 20.8 15.6 72 1033.4 9.2 N 14.5 0.0 0.0
14:33 20.9 15.7 72 1033.2 13.0 NW 14.5 0.0 0.0
14:34 20.9 15.7 72 1033.2 13.0 N 14.5 0.0 0.0
14:35 20.9 15.7 72 1033.4 8.3 NW 14.5 0.0 0.0
14:36 20.9 15.7 72 1033.2 9.2 NW 14.5 0.0 0.0
14:37 20.9 15.7 72 1033.1 9.2 NW 14.5 0.0 0.0
14:38 20.9 15.7 72 1033.3 6.9 NW 14.5 0.0 0.0
14:39 20.9 15.7 72 1033.2 6.9 NW 13.6 0.0 0.0
14:40 21.1 16.1 73 1033.4 12.1 N 13.6 0.0 0.0
14:41 21.1 15.9 72 1033.1 15.2 SW 15.2 0.0 0.0
14:42 21.1 16.1 73 1033.1 9.8 N 15.2 0.0 0.0
14:43 21.1 15.9 72 1033.1 19.7 SW 19.7 0.0 0.0
14:44 21.0 15.8 72 1033.2 13.6 NE 19.7 0.0 0.0
14:46 20.9 15.7 72 1033.2 11.4 E 19.7 0.0 0.0
14:47 20.9 15.7 72 1033.3 11.4 E 19.7 0.0 0.0
14:48 20.9 15.7 72 1033.1 11.4 E 19.7 0.0 0.0
14:49 20.9 15.7 72 1033.3 11.4 E 19.7 0.0 0.0
14:50 21.2 16.2 73 1033.1 5.4 N 19.7 0.0 0.0
14:51 21.2 16.2 73 1033.0 5.4 N 19.7 0.0 0.0
14:52 21.3 16.3 73 1033.3 8.3 NE 19.7 0.0 0.0
14:53 21.3 16.3 73 1033.3 8.3 NE 19.7 0.0 0.0
14:54 21.3 16.1 72 1033.3 8.3 NE 13.6 0.0 0.0
14:55 21.3 16.1 72 1033.4 13.0 NW 13.6 0.0 0.0
14:56 21.3 16.1 72 1033.4 13.0 NW 13.0 0.0 0.0
14:57 21.3 15.8 71 1033.3 13.0 NW 13.0 0.0 0.0
14:58 21.2 15.7 71 1033.2 10.7 NNE 13.0 0.0 0.0
14:59 21.2 15.7 71 1033.5 13.0 NW 13.0 0.0 0.0
15:00 21.2 15.7 71 1033.2 7.6 W 13.0 0.0 0.0
15:01 21.2 15.7 71 1033.3 7.6 W 13.0 0.0 0.0
15:03 21.4 16.2 72 1033.2 9.8 NW 13.0 0.0 0.0
15:04 21.4 16.2 72 1033.6 9.8 NW 13.0 0.0 0.0
15:05 21.4 16.2 72 1033.6 9.8 NW 13.0 0.0 0.0
15:06 21.4 16.2 72 1033.3 9.8 NW 13.0 0.0 0.0
15:07 21.3 16.1 72 1033.4 9.2 N 13.0 0.0 0.0
15:08 21.3 16.1 72 1033.4 6.9 SE 13.0 0.0 0.0
15:09 21.3 16.1 72 1033.4 6.9 SE 9.8 0.0 0.0
15:10 21.3 16.1 72 1033.6 12.1 NW 12.1 0.0 0.0
15:11 21.3 16.1 72 1033.4 7.6 NE 12.1 0.0 0.0
15:12 21.2 15.7 71 1033.6 10.7 NE 12.1 0.0 0.0
15:13 21.1 15.7 71 1033.3 7.6 N 12.1 0.0 0.0
15:14 20.9 15.5 71 1033.5 10.7 N 12.1 0.0 0.0
15:15 20.9 15.5 71 1033.5 10.7 N 12.1 0.0 0.0
15:16 20.8 15.6 72 1033.4 7.6 NE 12.1 0.0 0.0
15:17 20.8 15.6 72 1033.4 3.8 SW 12.1 0.0 0.0
15:18 20.7 15.5 72 1033.5 7.6 NNE 12.1 0.0 0.0
15:19 20.7 15.5 72 1033.4 7.6 N 12.1 0.0 0.0
15:20 20.8 15.8 73 1033.5 11.4 N 12.1 0.0 0.0
15:21 20.8 15.8 73 1033.5 13.0 NE 13.0 0.0 0.0
15:22 20.8 15.6 72 1033.5 13.0 SW 13.0 0.0 0.0
15:23 20.8 15.6 72 1033.5 5.4 NE 13.0 0.0 0.0
15:24 20.8 15.6 72 1033.5 7.6 NW 13.0 0.0 0.0
15:25 20.8 15.8 73 1033.4 6.9 NE 13.0 0.0 0.0
15:26 20.8 15.8 73 1033.6 7.6 NE 13.0 0.0 0.0
15:27 20.9 15.9 73 1033.6 10.7 N 13.0 0.0 0.0
15:28 20.8 15.6 72 1033.7 11.4 N 13.0 0.0 0.0
15:29 20.8 15.6 72 1033.6 9.2 SW 13.0 0.0 0.0
15:30 20.7 15.5 72 1033.6 9.8 N 13.0 0.0 0.0
15:31 20.7 15.5 72 1033.8 9.8 N 13.0 0.0 0.0
15:32 20.7 15.5 72 1033.7 6.9 NW 13.0 0.0 0.0
15:33 20.7 15.5 72 1033.7 6.9 NW 11.4 0.0 0.0
15:34 20.6 15.4 72 1033.5 11.4 N 11.4 0.0 0.0
15:35 20.4 15.2 72 1033.6 11.4 W 11.4 0.0 0.0
15:36 20.3 15.1 72 1033.5 11.4 NW 11.4 0.0 0.0
15:37 20.3 15.1 72 1033.5 8.3 NW 11.4 0.0 0.0
15:38 20.3 15.3 73 1033.7 9.2 SE 11.4 0.0 0.0
15:39 20.4 15.6 74 1033.6 6.9 W 11.4 0.0 0.0
15:40 20.4 15.6 74 1033.4 6.9 W 11.4 0.0 0.0
15:41 20.4 15.4 73 1033.3 9.8 N 11.4 0.0 0.0
15:43 20.4 15.4 73 1033.6 10.7 N 15.2 0.0 0.0
15:44 20.5 15.7 74 1033.5 11.4 N 15.2 0.0 0.0
15:45 20.5 15.7 74 1033.6 11.4 N 15.2 0.0 0.0
15:46 20.5 15.7 74 1033.4 11.4 N 15.2 0.0 0.0
15:47 20.5 15.5 73 1033.4 9.2 SE 15.2 0.0 0.0
15:48 20.5 15.5 73 1033.6 9.2 SE 15.2 0.0 0.0
15:49 20.5 15.5 73 1033.3 11.4 N 15.2 0.0 0.0
15:50 20.5 15.5 73 1033.5 11.4 NE 15.2 0.0 0.0
15:51 20.5 15.5 73 1033.4 11.4 NE 15.2 0.0 0.0
15:52 20.7 16.1 75 1033.3 4.5 E 15.2 0.0 0.0
15:53 20.7 16.1 75 1033.5 4.5 E 11.4 0.0 0.0
15:54 20.9 16.1 74 1033.3 9.8 N 11.4 0.0 0.0
15:55 20.9 16.1 74 1033.4 9.8 N 11.4 0.0 0.0
15:56 20.9 16.1 74 1033.3 9.8 N 11.4 0.0 0.0
15:57 20.9 16.1 74 1033.3 9.8 N 11.4 0.0 0.0
15:58 21.1 16.1 73 1033.3 7.6 NNE 11.4 0.0 0.0
15:59 21.0 15.8 72 1033.4 11.4 NW 11.4 0.0 0.0
16:00 21.0 15.8 72 1033.4 9.2 N 11.4 0.0 0.0
16:02 21.0 15.8 72 1033.5 9.2 N 11.4 0.0 0.0
16:03 21.0 16.0 73 1033.3 8.3 NE 11.4 0.0 0.0
16:04 21.2 16.0 72 1033.4 10.7 N 11.4 0.0 0.0
16:05 21.2 16.0 72 1033.5 10.7 N 11.4 0.0 0.0
16:06 21.1 15.9 72 1033.6 10.7 SW 11.4 0.0 0.0
16:07 21.1 15.9 72 1033.5 9.8 W 11.4 0.0 0.0
16:08 21.0 15.8 72 1033.5 9.8 W 12.1 0.0 0.0
16:09 21.0 15.8 72 1033.5 9.8 W 12.1 0.0 0.0
16:10 21.0 15.8 72 1033.3 9.2 N 12.1 0.0 0.0
16:11 21.0 15.8 72 1033.6 12.1 NE 12.1 0.0 0.0
16:12 20.9 15.7 72 1033.3 10.7 NE 12.1 0.0 0.0
16:13 20.9 15.7 72 1033.5 7.6 N 12.1 0.0 0.0
16:14 20.9 15.7 72 1033.5 10.7 E 12.1 0.0 0.0
16:15 20.9 15.7 72 1033.4 12.1 NW 12.1 0.0 0.0
16:16 20.9 15.7 72 1033.4 13.6 N 13.6 0.0 0.0
16:17 20.8 15.6 72 1033.3 11.4 NE 13.6 0.0 0.0
16:18 20.9 15.9 73 1033.3 7.6 N 13.6 0.0 0.0
16:19 20.9 15.9 73 1033.2 7.6 N 13.6 0.0 0.0
16:21 20.9 15.9 73 1033.2 9.2 NW 13.6 0.0 0.0
16:22 20.9 15.9 73 1033.2 8.3 N 13.6 0.0 0.0
16:23 21.0 16.0 73 1033.3 9.2 N 13.6 0.0 0.0
16:24 21.0 15.8 72 1033.1 10.7 N 13.6 0.0 0.0
16:25 21.0 15.8 72 1033.1 10.7 N 13.6 0.0 0.0
16:26 20.9 15.7 72 1033.0 7.6 N 11.4 0.0 0.0
16:27 20.9 15.5 71 1033.4 7.6 NE 11.4 0.0 0.0
16:28 20.9 15.7 72 1033.3 8.3 N 10.7 0.0 0.0
16:29 20.9 15.7 72 1033.3 9.8 NE 10.7 0.0 0.0
16:30 21.0 15.8 72 1033.2 13.0 W 13.0 0.0 0.0
16:31 21.0 15.8 72 1033.2 13.0 W 13.0 0.0 0.0
16:32 21.0 15.8 72 1033.2 7.6 N 13.0 0.0 0.0
16:33 21.0 15.8 72 1033.3 9.2 NW 13.0 0.0 0.0
16:34 20.9 15.7 72 1033.3 9.2 N 13.0 0.0 0.0
16:35 21.0 16.0 73 1033.1 5.4 E 13.0 0.0 0.0
16:36 21.0 16.0 73 1033.3 11.4 NW 13.0 0.0 0.0
16:37 21.0 15.8 72 1033.2 11.4 N 13.0 0.0 0.0
16:39 20.9 15.7 72 1033.1 11.4 N 13.0 0.0 0.0
16:40 20.9 15.7 72 1033.0 9.2 W 13.0 0.0 0.0
16:41 20.9 15.7 72 1033.0 7.6 NW 12.1 0.0 0.0
16:42 20.9 15.7 72 1032.9 7.6 NW 12.1 0.0 0.0
16:43 21.0 16.0 73 1033.0 11.4 N 12.1 0.0 0.0
16:44 21.0 15.8 72 1033.1 11.4 N 12.1 0.0 0.0
16:45 21.0 15.8 72 1033.0 13.0 N 13.0 0.0 0.0
16:46 21.0 15.8 72 1033.1 9.8 NE 13.0 0.0 0.0
16:47 21.0 15.8 72 1033.0 8.3 N 13.0 0.0 0.0
16:48 21.0 15.8 72 1033.3 11.4 N 13.0 0.0 0.0
16:49 21.0 15.8 72 1033.1 8.3 NW 13.0 0.0 0.0
16:50 21.1 15.9 72 1033.2 9.8 N 13.0 0.0 0.0
16:51 21.1 15.9 72 1033.1 9.8 NW 13.0 0.0 0.0
16:52 21.1 15.9 72 1033.3 9.2 NW 13.0 0.0 0.0
16:53 21.1 15.9 72 1033.2 9.2 E 13.0 0.0 0.0
16:54 21.1 15.7 71 1033.3 6.9 NW 13.0 0.0 0.0
16:55 21.1 15.9 72 1033.3 6.0 NE 13.0 0.0 0.0
16:56 21.2 16.0 72 1033.3 7.6 N 11.4 0.0 0.0
16:58 21.2 16.0 72 1033.2 8.3 N 9.8 0.0 0.0
16:59 21.2 16.0 72 1033.2 8.3 NE 9.8 0.0 0.0
17:00 21.2 15.7 71 1033.5 9.2 NW 9.8 0.0 0.0
17:01 21.2 15.7 71 1033.3 9.2 NW 9.8 0.0 0.0
17:02 21.2 15.7 71 1033.2 9.2 NW 9.2 0.0 0.0
17:03 21.2 15.7 71 1033.2 9.2 NW 9.2 0.0 0.0
17:04 21.2 15.7 71 1033.3 9.2 NW 9.2 0.0 0.0
17:05 21.3 16.3 73 1033.4 9.2 NW 9.2 0.0 0.0
17:06 21.4 16.4 73 1033.3 6.9 N 9.2 0.0 0.0
17:07 21.5 16.3 72 1033.2 9.8 NW 9.8 0.0 0.0
17:08 21.5 16.3 72 1033.1 10.7 W 10.7 0.0 0.0
17:09 21.5 16.3 72 1033.2 10.7 W 10.7 0.0 0.0
17:10 21.5 16.0 71 1033.1 5.4 WNW 10.7 0.0 0.0
17:11 21.5 16.3 72 1033.4 5.4 NW 10.7 0.0 0.0
17:12 21.6 16.4 72 1033.5 6.0 NE 10.7 0.0 0.0
17:13 21.6 16.4 72 1033.3 10.7 NW 10.7 0.0 0.0
17:14 21.6 16.1 71 1033.3 9.2 W 10.7 0.0 0.0
17:15 21.6 16.1 71 1033.4 11.4 N 11.4 0.0 0.0
17:16 21.5 15.8 70 1033.2 9.8 NW 11.4 0.0 0.0
17:17 21.5 16.0 71 1033.2 8.3 NW 11.4 0.0 0.0
17:19 21.5 16.0 71 1033.3 4.5 SW 11.4 0.0 0.0
17:20 21.5 16.0 71 1033.4 9.2 N 11.4 0.0 0.0
17:21 21.5 16.0 71 1033.3 9.2 N 11.4 0.0 0.0
17:22 21.4 15.9 71 1033.3 8.3 NE 11.4 0.0 0.0
17:23 21.4 15.9 71 1033.2 6.0 N 11.4 0.0 0.0
17:24 21.4 15.9 71 1033.4 12.1 NW 12.1 0.0 0.0
17:25 21.3 15.8 71 1033.5 12.1 NW 12.1 0.0 0.0
17:26 21.3 16.1 72 1033.4 5.4 SW 12.1 0.0 0.0
17:27 21.3 16.1 72 1033.6 6.0 SW 12.1 0.0 0.0
17:29 21.4 16.2 72 1033.5 8.3 NE 12.1 0.0 0.0
17:30 21.4 15.9 71 1033.4 7.6 NW 12.1 0.0 0.0
17:31 21.4 15.9 71 1033.5 8.3 W 12.1 0.0 0.0
17:32 21.4 15.9 71 1033.5 6.9 N 12.1 0.0 0.0
17:33 21.3 15.8 71 1033.1 10.7 NW 12.1 0.0 0.0
17:34 21.3 15.8 71 1033.4 9.2 NW 12.1 0.0 0.0
17:35 21.2 15.7 71 1033.5 10.7 W 10.7 0.0 0.0
17:36 21.2 15.7 71 1033.4 13.6 NW 13.6 0.0 0.0
17:37 21.2 15.7 71 1033.4 13.6 NW 13.6 0.0 0.0
17:38 21.2 15.5 70 1033.4 10.7 N 13.6 0.0 0.0
17:39 21.1 15.7 71 1033.4 10.7 N 13.6 0.0 0.0
17:40 21.1 15.7 71 1033.4 15.2 N 15.2 0.0 0.0
17:41 21.0 15.6 71 1033.3 15.2 NE 15.2 0.0 0.0
17:42 21.0 15.6 71 1033.4 7.6 NE 15.2 0.0 0.0
17:43 21.0 15.6 71 1033.3 7.6 NE 15.2 0.0 0.0
17:44 21.0 15.6 71 1033.5 8.3 N 15.2 0.0 0.0
17:45 21.0 15.8 72 1033.3 8.3 E 15.2 0.0 0.0
17:46 21.1 15.9 72 1033.4 10.7 W 15.2 0.0 0.0
17:48 21.1 15.7 71 1033.2 11.4 N 15.2 0.0 0.0
17:49 21.1 15.7 71 1033.3 11.4 NW 15.2 0.0 0.0
17:50 21.1 15.7 71 1033.3 6.9 NW 15.2 0.0 0.0
17:51 21.1 15.7 71 1033.3 9.2 NE 11.4 0.0 0.0
17:52 21.0 15.6 71 1033.4 9.2 NW 11.4 0.0 0.0
17:53 21.0 15.3 70 1033.5 9.2 NE 11.4 0.0 0.0
17:54 21.0 15.6 71 1033.3 9.2 NE 11.4 0.0 0.0
17:55 20.9 15.5 71 1033.4 13.0 NE 13.0 0.0 0.0
17:56 20.9 15.5 71 1033.3 13.0 NE 13.0 0.0 0.0
17:57 20.8 15.4 71 1033.3 11.4 NE 13.0 0.0 0.0
17:58 20.8 15.1 70 1033.4 8.3 NW 13.0 0.0 0.0
17:59 20.8 15.1 70 1033.5 9.8 N 13.0 0.0 0.0
18:00 20.8 15.1 70 1033.4 9.8 N 13.0 0.0 0.0
18:01 20.8 15.1 70 1033.2 9.8 N 13.0 0.0 0.0
18:02 20.7 15.3 71 1033.4 9.8 N 13.0 0.0 0.0
18:04 20.7 15.3 71 1033.3 6.9 N 13.0 0.0 0.0
18:05 20.7 15.3 71 1033.4 6.9 NW 13.0 0.0 0.0
18:06 20.8 15.4 71 1033.2 10.7 NW 11.4 0.0 0.0
18:07 20.8 15.4 71 1033.3 9.8 W 11.4 0.0 0.0
18:08 20.8 15.4 71 1033.3 10.7 NE 10.7 0.0 0.0
18:09 20.8 15.4 71 1033.3 10.7 NE 10.7 0.0 0.0
18:10 20.8 15.4 71 1033.2 8.3 NW 10.7 0.0 0.0
18:11 20.8 15.4 71 1033.2 8.3 SW 10.7 0.0 0.0
18:12 20.8 15.4 71 1033.3 8.3 WNW 10.7 0.0 0.0
18:13 20.7 15.0 70 1033.2 10.7 NW 10.7 0.0 0.0
18:14 20.7 15.3 71 1033.1 10.7 N 10.7 0.0 0.0
18:15 20.7 15.3 71 1033.2 10.7 N 10.7 0.0 0.0
18:16 20.7 15.3 71 1033.2 9.2 NW 10.7 0.0 0.0
18:18 20.6 15.2 71 1033.2 8.3 NE 10.7 0.0 0.0
18:19 20.6 15.2 71 1033.2 8.3 NE 10.7 0.0 0.0
18:20 20.5 15.1 71 1033.4 6.0 N 10.7 0.0 0.0
18:21 20.6 15.2 71 1033.5 7.6 N 10.7 0.0 0.0
18:22 20.6 15.2 71 1033.3 11.4 NW 11.4 0.0 0.0
18:23 20.6 15.2 71 1033.2 9.2 NE 11.4 0.0 0.0
18:24 20.6 15.2 71 1033.1 10.7 NW 11.4 0.0 0.0
18:25 20.6 15.2 71 1033.5 10.7 NW 11.4 0.0 0.0
18:26 20.6 15.2 71 1033.4 7.6 NE 11.4 0.0 0.0
18:27 20.6 15.2 71 1033.2 7.6 NW 11.4 0.0 0.0
18:28 20.6 15.2 71 1033.3 7.6 N 11.4 0.0 0.0
18:29 20.6 15.0 70 1033.3 10.7 W 11.4 0.0 0.0
18:30 20.5 14.9 70 1033.3 9.8 NE 11.4 0.0 0.0
18:32 20.5 14.9 70 1033.1 11.4 NW 11.4 0.0 0.0
18:33 20.5 14.9 70 1033.4 11.4 NW 11.4 0.0 0.0
18:34 20.5 14.9 70 1033.2 11.4 N 11.4 0.0 0.0
18:35 20.5 14.9 70 1033.2 11.4 N 11.4 0.0 0.0
18:36 20.5 15.1 71 1033.4 9.2 N 11.4 0.0 0.0
18:37 20.5 14.9 70 1033.3 9.2 N 11.4 0.0 0.0
18:38 20.5 14.9 70 1033.3 7.6 N 11.4 0.0 0.0
18:39 20.5 14.9 70 1033.4 8.3 NW 11.4 0.0 0.0
18:40 20.5 14.9 70 1033.3 8.3 N 11.4 0.0 0.0
18:41 20.5 15.1 71 1033.4 7.6 NW 11.4 0.0 0.0
18:42 20.5 14.9 70 1033.3 7.6 NE 11.4 0.0 0.0
18:43 20.5 14.9 70 1033.4 9.8 SE 11.4 0.0 0.0
18:44 20.5 14.9 70 1033.3 6.0 S 11.4 0.0 0.0
18:45 20.5 14.9 70 1033.3 11.4 NE 11.4 0.0 0.0
18:46 20.5 14.9 70 1033.3 12.1 NW 12.1 0.0 0.0
18:47 20.4 14.8 70 1033.4 12.1 WNW 12.1 0.0 0.0
18:48 20.4 14.8 70 1033.2 9.8 N 12.1 0.0 0.0
18:49 20.3 14.7 70 1033.3 13.0 N 13.0 0.0 0.0
18:50 20.3 14.7 70 1033.4 9.2 NW 13.0 0.0 0.0
18:51 20.2 14.6 70 1033.2 13.6 N 13.6 0.0 0.0
18:52 20.1 14.5 70 1033.4 10.7 NE 13.6 0.0 0.0
18:53 20.1 14.5 70 1033.2 8.3 W 13.6 0.0 0.0
18:54 20.1 14.5 70 1033.4 10.7 W 13.6 0.0 0.0
18:55 20.0 14.4 70 1033.4 8.3 N 13.6 0.0 0.0
18:56 20.0 14.4 70 1033.3 9.8 W 13.6 0.0 0.0
18:57 20.0 14.4 70 1033.3 9.8 W 13.6 0.0 0.0
18:58 20.0 14.4 70 1033.4 6.9 NW 13.6 0.0 0.0
18:59 20.0 14.6 71 1033.3 5.4 S 13.6 0.0 0.0
19:00 20.0 14.6 71 1033.5 11.4 N 13.6 0.0 0.0
19:01 20.0 14.6 71 1033.3 11.4 N 13.6 0.0 0.0
19:02 19.9 14.3 70 1033.3 11.4 NE 11.4 0.0 0.0
19:03 19.9 14.3 70 1033.5 6.9 N 11.4 0.0 0.0
19:04 19.9 14.5 71 1033.5 6.9 NW 11.4 0.0 0.0
19:05 20.0 14.6 71 1033.3 8.3 NE 11.4 0.0 0.0
19:06 20.0 14.6 71 1033.3 5.4 NW 11.4 0.0 0.0
19:08 20.0 14.6 71 1033.5 9.8 N 11.4 0.0 0.0
19:09 20.0 14.6 71 1033.5 10.7 NE 11.4 0.0 0.0
19:10 19.9 14.5 71 1033.5 8.3 N 11.4 0.0 0.0
19:11 19.9 14.5 71 1033.5 8.3 NW 11.4 0.0 0.0
19:12 19.9 14.7 72 1033.5 7.6 NW 11.4 0.0 0.0
19:13 19.9 14.7 72 1033.6 7.6 NW 10.7 0.0 0.0
19:14 19.9 14.7 72 1033.6 11.4 N 11.4 0.0 0.0
19:15 19.9 14.7 72 1033.5 9.8 W 11.4 0.0 0.0
19:16 19.9 14.7 72 1033.5 8.3 NW 11.4 0.0 0.0
19:17 19.9 14.7 72 1033.7 7.6 N 11.4 0.0 0.0
19:18 19.8 14.6 72 1033.5 6.0 NNE 11.4 0.0 0.0
19:19 19.8 14.6 72 1033.5 9.2 N 11.4 0.0 0.0
19:20 19.8 14.4 71 1033.5 8.3 NE 13.0 0.0 0.0
19:22 19.7 14.5 72 1033.6 10.7 S 13.0 0.0 0.0
19:23 19.7 14.5 72 1033.6 6.9 NE 13.0 0.0 0.0
19:24 19.6 14.4 72 1033.5 9.8 N 13.0 0.0 0.0
19:25 19.6 14.4 72 1033.6 9.8 W 13.0 0.0 0.0
19:26 19.6 14.4 72 1033.5 9.8 NW 13.0 0.0 0.0
19:27 19.6 14.4 72 1033.6 9.8 N 13.0 0.0 0.0
19:28 19.5 14.3 72 1033.4 9.2 NW 13.0 0.0 0.0
19:29 19.5 14.3 72 1033.4 9.2 NW 13.0 0.0 0.0
19:30 19.5 14.3 72 1033.5 13.6 NW 13.6 0.0 0.0
19:31 19.5 14.3 72 1033.5 13.6 SE 13.6 0.0 0.0
19:32 19.4 14.4 73 1033.5 7.6 N 13.6 0.0 0.0
19:33 19.4 14.4 73 1033.5 9.2 E 13.6 0.0 0.0
19:34 19.4 14.7 74 1033.6 6.9 N 13.6 0.0 0.0
19:35 19.4 14.7 74 1033.9 6.9 NW 13.6 0.0 0.0
19:36 19.4 14.7 74 1033.4 13.6 N 13.6 0.0 0.0
19:37 19.4 14.7 74 1033.4 13.6 NW 13.6 0.0 0.0
19:38 19.3 14.6 74 1033.6 9.2 N 13.6 0.0 0.0
19:40 19.2 14.7 75 1033.5 10.7 E 13.6 0.0 0.0
19:41 19.2 14.7 75 1033.7 10.7 W 13.6 0.0 0.0
19:42 19.2 14.9 76 1033.4 8.3 N 13.6 0.0 0.0
19:43 19.2 14.9 76 1033.7 8.3 N 13.6 0.0 0.0
19:44 19.1 14.8 76 1033.4 7.6 N 13.6 0.0 0.0
19:45 19.1 14.8 76 1033.7 7.6 NW 13.6 0.0 0.0
19:46 19.1 14.8 76 1033.5 3.8 NW 13.6 0.0 0.0
19:47 19.1 15.0 77 1033.4 6.9 NW 10.7 0.0 0.0
19:48 19.1 15.0 77 1033.7 6.9 N 10.7 0.0 0.0
19:49 19.1 15.0 77 1033.7 12.1 N 12.1 0.0 0.0
19:50 19.0 14.9 77 1033.7 8.3 NE 12.1 0.0 0.0
19:51 19.0 14.9 77 1033.5 9.2 SW 12.1 0.0 0.0
19:52 19.0 14.9 77 1033.6 9.2 N 12.1 0.0 0.0
19:53 19.0 14.9 77 1033.6 9.2 N 12.1 0.0 0.0
19:54 18.9 14.8 77 1033.7 8.3 N 12.1 0.0 0.0
19:55 18.8 14.7 77 1033.4 9.2 NW 12.1 0.0 0.0
19:56 18.8 14.7 77 1033.6 10.7 NW 12.1 0.0 0.0
19:57 18.8 14.7 77 1033.5 7.6 N 12.1 0.0 0.0
19:59 18.7 14.6 77 1033.5 9.2 N 12.1 0.0 0.0
20:00 18.7 14.6 77 1033.6 9.2 N 10.7 0.0 0.0
20:01 18.7 14.6 77 1033.6 9.2 N 10.7 0.0 0.0
20:02 18.5 14.6 78 1033.7 15.9 NW 15.9 0.0 0.0
20:03 18.5 14.6 78 1033.7 10.7 NW 15.9 0.0 0.0
20:04 18.4 14.5 78 1033.5 9.2 NW 15.9 0.0 0.0
20:05 18.4 14.5 78 1033.5 10.7 N 15.9 0.0 0.0
20:06 18.4 14.7 79 1033.7 9.8 N 15.9 0.0 0.0
20:07 18.3 14.6 79 1033.6 9.8 NE 15.9 0.0 0.0
20:08 18.3 14.6 79 1033.6 10.7 N 15.9 0.0 0.0
20:09 18.3 14.6 79 1033.4 10.7 N 15.9 0.0 0.0
20:10 18.2 14.5 79 1033.5 11.4 N 15.9 0.0 0.0
20:11 18.2 14.5 79 1033.6 9.2 NNE 15.9 0.0 0.0
20:12 18.2 14.5 79 1033.6 13.0 W 15.9 0.0 0.0
20:13 18.2 14.5 79 1033.5 13.0 N 13.0 0.0 0.0
20:14 18.2 14.5 79 1033.8 9.2 SW 13.0 0.0 0.0
20:15 18.2 14.5 79 1033.7 6.0 N 13.0 0.0 0.0
20:16 18.2 14.5 79 1033.7 6.0 N 13.0 0.0 0.0
20:18 18.1 14.4 79 1033.4 8.3 N 13.0 0.0 0.0
20:19 18.1 14.4 79 1033.6 8.3 SW 13.0 0.0 0.0
20:20 18.0 14.3 79 1033.6 11.4 NW 13.0 0.0 0.0
20:21 18.0 14.3 79 1033.5 13.6 NE 13.6 0.0 0.0
20:22 18.0 14.3 79 1033.7 12.1 N 13.6 0.0 0.0
20:23 17.9 14.2 79 1033.7 10.7 N 13.6 0.0 0.0
20:24 17.9 14.2 79 1033.8 8.3 NW 13.6 0.0 0.0
20:25 17.8 14.1 79 1033.9 9.8 SW 13.6 0.0 0.0
20:26 17.8 14.1 79 1033.8 9.8 NE 13.6 0.0 0.0
20:27 17.7 14.0 79 1033.7 8.3 N 13.6 0.0 0.0
20:28 17.7 14.0 79 1033.9 9.2 N 13.6 0.0 0.0
20:29 17.7 14.0 79 1033.5 9.2 NW 13.6 0.0 0.0
20:30 17.6 14.1 80 1033.6 10.7 N 13.6 0.0 0.0
20:31 17.6 14.1 80 1033.5 10.7 W 13.6 0.0 0.0
20:32 17.6 14.1 80 1033.7 9.8 N 12.1 0.0 0.0
20:33 17.6 14.1 80 1033.8 12.1 N 12.1 0.0 0.0
20:34 17.5 14.0 80 1033.9 7.6 W 12.1 0.0 0.0
20:35 17.5 14.0 80 1033.7 4.5 N 12.1 0.0 0.0
20:37 17.4 14.5 83 1033.8 8.3 W 12.1 0.0 0.0
20:38 17.4 14.5 83 1033.7 8.3 N 12.1 0.0 0.0
20:39 17.4 14.5 83 1033.8 8.3 N 12.1 0.0 0.0
20:40 17.3 14.4 83 1033.7 8.3 NE 12.1 0.0 0.0
20:41 17.3 14.4 83 1033.8 9.2 NE 12.1 0.0 0.0
20:42 17.3 14.4 83 1033.8 7.6 NW 12.1 0.0 0.0
20:43 17.2 14.3 83 1033.8 8.3 NW 9.8 0.0 0.0
20:44 17.2 14.3 83 1033.8 7.6 NE 9.2 0.0 0.0
20:45 17.2 14.3 83 1033.9 9.8 NW 9.8 0.0 0.0
20:46 17.1 14.2 83 1033.9 9.2 NE 9.8 0.0 0.0
20:47 17.1 14.2 83 1033.9 7.6 NE 9.8 0.0 0.0
20:48 17.0 14.1 83 1033.9 5.4 N 9.8 0.0 0.0
20:49 17.0 14.1 83 1033.8 7.6 SE 9.8 0.0 0.0
20:50 16.9 14.0 83 1033.7 5.4 S 9.8 0.0 0.0
20:51 16.9 14.0 83 1034.0 6.0 NW 9.8 0.0 0.0
20:52 16.9 14.2 84 1033.9 7.6 WNW 9.8 0.0 0.0
20:53 16.8 14.1 84 1033.8 6.9 NW 9.8 0.0 0.0
20:55 16.8 14.1 84 1033.9 4.5 N 9.8 0.0 0.0
20:56 16.7 14.0 84 1033.8 6.0 NW 9.2 0.0 0.0
20:57 16.7 14.0 84 1033.7 8.3 NW 8.3 0.0 0.0
20:58 16.7 14.0 84 1034.0 10.7 N 10.7 0.0 0.0
20:59 16.6 13.9 84 1033.8 5.4 NE 10.7 0.0 0.0
21:00 16.6 13.9 84 1034.0 6.9 N 10.7 0.0 0.0
21:01 16.6 13.9 84 1033.8 6.9 N 10.7 0.0 0.0
21:02 16.6 13.9 84 1034.0 6.9 N 10.7 0.0 0.0
21:03 16.6 13.9 84 1034.0 6.9 N 10.7 0.0 0.0
21:04 16.6 13.9 84 1033.9 6.9 N 10.7 0.0 0.0
21:05 16.6 13.9 84 1033.9 6.9 N 10.7 0.0 0.0
21:06 16.6 13.9 84 1033.9 6.9 N 10.7 0.0 0.0
21:07 16.4 13.9 85 1033.8 6.0 N 10.7 0.0 0.0
21:08 16.4 13.9 85 1033.8 6.0 N 10.7 0.0 0.0
21:09 16.4 13.9 85 1033.9 5.4 N 6.9 0.0 0.0
21:10 16.3 13.8 85 1034.0 4.5 N 6.9 0.0 0.0
21:11 16.3 13.8 85 1033.8 5.4 NW 6.9 0.0 0.0
21:12 16.3 13.8 85 1033.9 4.5 N 6.9 0.0 0.0
21:14 16.2 13.9 86 1033.7 5.4 NE 6.9 0.0 0.0
21:15 16.2 13.9 86 1033.9 5.4 NW 6.9 0.0 0.0
21:16 16.2 13.9 86 1034.1 6.9 NW 6.9 0.0 0.0
21:17 16.1 13.8 86 1033.8 6.9 NW 6.9 0.0 0.0
21:18 16.1 13.8 86 1033.9 8.3 N 8.3 0.0 0.0
21:19 16.1 13.8 86 1034.2 4.5 W 8.3 0.0 0.0
21:20 16.1 13.8 86 1034.0 8.3 N 8.3 0.0 0.0
21:22 16.0 13.8 87 1034.1 3.8 W 8.3 0.0 0.0
21:23 16.0 13.8 87 1034.1 6.0 WNW 8.3 0.0 0.0
21:24 16.0 13.8 87 1034.2 6.0 N 8.3 0.0 0.0
21:25 16.0 13.8 87 1034.3 6.0 NW 8.3 0.0 0.0
21:26 16.0 13.8 87 1033.8 7.6 W 8.3 0.0 0.0
21:28 15.9 13.7 87 1034.0 6.0 NE 8.3 0.0 0.0
21:29 15.9 13.7 87 1034.1 6.0 NE 8.3 0.0 0.0
21:30 15.9 13.9 88 1034.2 8.3 E 8.3 0.0 0.0
21:31 15.9 13.9 88 1034.1 6.0 NNE 8.3 0.0 0.0
21:32 15.8 13.8 88 1034.2 5.4 NW 8.3 0.0 0.0
21:33 15.8 13.8 88 1034.2 8.3 N 8.3 0.0 0.0
21:34 15.8 13.8 88 1034.2 8.3 N 8.3 0.0 0.0
21:35 15.8 13.8 88 1034.0 10.7 N 10.7 0.0 0.0
21:36 15.8 13.8 88 1034.1 6.0 N 10.7 0.0 0.0
21:37 15.8 13.8 88 1034.0 6.9 N 10.7 0.0 0.0
21:38 15.8 14.0 89 1034.4 5.4 N 10.7 0.0 0.0
21:39 15.8 14.0 89 1034.2 6.0 W 10.7 0.0 0.0
21:40 15.8 14.0 89 1034.3 4.5 NE 10.7 0.0 0.0
21:41 15.7 13.9 89 1034.3 7.6 NE 10.7 0.0 0.0
21:42 15.7 13.9 89 1034.3 4.5 N 10.7 0.0 0.0
21:43 15.7 13.9 89 1034.4 4.5 NE 10.7 0.0 0.0
21:44 15.7 13.9 89 1034.3 4.5 WNW 10.7 0.0 0.0
21:45 15.7 13.9 89 1034.3 6.0 NW 10.7 0.0 0.0
21:46 15.7 13.9 89 1034.4 8.3 N 8.3 0.0 0.0
21:47 15.7 13.9 89 1034.4 8.3 N 8.3 0.0 0.0
21:48 15.6 13.8 89 1034.3 6.0 N 8.3 0.0 0.0
21:50 15.6 13.8 89 1034.6 6.9 NW 8.3 0.0 0.0
21:51 15.6 13.8 89 1034.2 6.9 N 8.3 0.0 0.0
21:52 15.6 13.8 89 1034.2 5.4 NE 8.3 0.0 0.0
21:53 15.6 13.8 89 1034.3 7.6 NE 8.3 0.0 0.0
21:54 15.6 13.8 89 1034.5 8.3 N 8.3 0.0 0.0
21:55 15.6 13.8 89 1034.6 5.4 N 8.3 0.0 0.0
21:56 15.5 13.9 90 1034.6 6.0 N 8.3 0.0 0.0
21:57 15.5 13.9 90 1034.5 4.5 SE 8.3 0.0 0.0
21:58 15.5 13.9 90 1034.4 6.0 E 8.3 0.0 0.0
21:59 15.5 13.9 90 1034.5 6.0 NE 8.3 0.0 0.0
22:00 15.5 13.9 90 1034.4 6.0 NW 8.3 0.0 0.0
22:01 15.5 13.9 90 1034.4 3.8 NW 8.3 0.0 0.0
22:02 15.5 13.9 90 1034.5 6.9 NE 8.3 0.0 0.0
22:03 15.5 13.9 90 1034.7 8.3 NE 8.3 0.0 0.0
22:04 15.5 13.9 90 1034.5 6.9 SW 8.3 0.0 0.0
22:05 15.5 13.9 90 1034.7 5.4 NE 8.3 0.0 0.0
22:06 15.5 13.9 90 1034.5 7.6 N 8.3 0.0 0.0
22:07 15.5 13.9 90 1034.6 5.4 E 8.3 0.0 0.0
22:09 15.4 13.8 90 1034.6 6.9 N 8.3 0.0 0.0
22:10 15.4 13.8 90 1034.5 5.4 N 8.3 0.0 0.0
22:11 15.4 13.8 90 1034.6 6.0 NW 8.3 0.0 0.0
22:12 15.4 13.8 90 1034.6 6.9 N 8.3 0.0 0.0
22:13 15.4 13.8 90 1034.5 5.4 NE 7.6 0.0 0.0
22:14 15.4 13.8 90 1034.6 5.4 NE 7.6 0.0 0.0
22:15 15.4 13.8 90 1034.5 6.9 N 7.6 0.0 0.0
22:16 15.4 13.8 90 1034.7 4.5 N 7.6 0.0 0.0
22:17 15.4 13.8 90 1034.7 4.5 N 6.9 0.0 0.0
22:18 15.4 13.8 90 1034.6 9.8 N 9.8 0.0 0.0
22:19 15.4 13.9 91 1034.6 6.0 SW 9.8 0.0 0.0
22:20 15.4 13.9 91 1034.7 6.0 N 9.8 0.0 0.0
22:21 15.3 13.8 91 1034.5 6.9 E 9.8 0.0 0.0
22:22 15.3 13.8 91 1034.8 5.4 N 9.8 0.0 0.0
22:23 15.3 13.8 91 1034.5 4.5 NW 9.8 0.0 0.0
22:24 15.3 13.8 91 1034.4 6.0 N 9.8 0.0 0.0
22:25 15.3 13.8 91 1034.8 6.0 NW 9.8 0.0 0.0
22:26 15.3 13.8 91 1034.5 8.3 NW 9.8 0.0 0.0
22:28 15.3 13.8 91 1034.6 6.0 N 9.8 0.0 0.0
22:29 15.3 13.8 91 1034.5 4.5 N 8.3 0.0 0.0
22:30 15.3 13.8 91 1034.3 6.9 W 8.3 0.0 0.0
22:31 15.3 13.8 91 1034.4 6.9 W 8.3 0.0 0.0
22:32 15.3 13.8 91 1034.6 6.0 NE 8.3 0.0 0.0
22:33 15.3 13.8 91 1034.5 6.9 NE 8.3 0.0 0.0
22:34 15.3 13.8 91 1034.6 7.6 NW 8.3 0.0 0.0
22:35 15.3 13.8 91 1034.5 7.6 NE 8.3 0.0 0.0
22:36 15.3 13.8 91 1034.5 5.4 E 8.3 0.0 0.0
22:37 15.3 13.8 91 1034.5 6.0 N 7.6 0.0 0.0
22:38 15.3 13.8 91 1034.5 6.0 SW 7.6 0.0 0.0
22:39 15.3 13.8 91 1034.7 6.0 NE 7.6 0.0 0.0
22:40 15.3 13.8 91 1034.6 6.0 NE 7.6 0.0 0.0
22:41 15.3 14.0 92 1034.7 6.0 N 7.6 0.0 0.0
22:42 15.3 14.0 92 1034.6 4.5 N 7.6 0.0 0.0
22:43 15.3 14.0 92 1034.6 4.5 N 7.6 0.0 0.0
22:44 15.3 14.0 92 1034.5 6.0 NE 7.6 0.0 0.0
22:45 15.3 14.0 92 1034.5 5.4 E 7.6 0.0 0.0
22:47 15.3 14.0 92 1034.4 4.5 N 6.0 0.0 0.0
22:48 15.3 14.0 92 1034.7 6.0 NW 6.0 0.0 0.0
22:49 15.3 14.0 92 1034.4 5.4 N 6.0 0.0 0.0
22:50 15.3 14.0 92 1034.4 5.4 N 6.0 0.0 0.0
22:51 15.3 14.0 92 1034.4 5.4 E 6.0 0.0 0.0
22:52 15.3 14.0 92 1034.4 6.0 NE 6.0 0.0 0.0
22:53 15.3 14.0 92 1034.4 6.0 N 6.0 0.0 0.0
22:54 15.3 14.0 92 1034.8 3.1 N 6.0 0.0 0.0
22:55 15.3 14.0 92 1034.5 2.2 N 6.0 0.0 0.0
22:56 15.3 14.0 92 1034.5 4.5 NE 6.0 0.0 0.0
22:57 15.3 14.0 92 1034.6 4.5 N 6.0 0.0 0.0
22:58 15.3 14.0 92 1034.5 4.5 NE 6.0 0.0 0.0
22:59 15.3 14.0 92 1034.5 6.0 N 6.0 0.0 0.0
23:00 15.3 14.0 92 1034.5 6.0 NW 6.0 0.0 0.0
23:01 15.3 14.0 92 1034.5 6.0 NW 6.0 0.0 0.0
23:02 15.3 14.0 92 1034.6 7.6 NE 7.6 0.0 0.0
23:03 15.3 14.0 92 1034.4 5.4 W 7.6 0.0 0.0
23:04 15.3 14.0 92 1034.3 4.5 N 7.6 0.0 0.0
23:06 15.3 14.0 92 1034.5 6.9 NE 7.6 0.0 0.0
23:07 15.3 14.0 92 1034.4 5.4 NW 7.6 0.0 0.0
23:08 15.3 14.0 92 1034.5 5.4 N 7.6 0.0 0.0
23:09 15.3 14.0 92 1034.2 6.9 NE 7.6 0.0 0.0
23:10 15.3 14.0 92 1034.4 6.9 NE 7.6 0.0 0.0
23:11 15.3 14.2 93 1034.4 6.9 N 7.6 0.0 0.0
23:12 15.3 14.2 93 1034.4 6.0 NW 7.6 0.0 0.0
23:13 15.3 14.2 93 1034.4 6.0 NW 7.6 0.0 0.0
23:14 15.3 14.2 93 1034.6 7.6 N 7.6 0.0 0.0
23:15 15.3 14.2 93 1034.3 7.6 N 7.6 0.0 0.0
23:16 15.3 14.2 93 1034.4 7.6 E 7.6 0.0 0.0
23:17 15.3 14.2 93 1034.2 8.3 NE 8.3 0.0 0.0
23:18 15.4 14.3 93 1034.5 9.8 N 9.8 0.0 0.0
23:19 15.4 14.3 93 1034.3 8.3 N 9.8 0.0 0.0
23:20 15.4 14.3 93 1034.3 5.4 NW 9.8 0.0 0.0
23:21 15.4 14.3 93 1034.3 5.4 N 9.8 0.0 0.0
23:22 15.4 14.3 93 1034.4 6.9 N 9.8 0.0 0.0
23:23 15.4 14.3 93 1034.4 5.4 N 9.8 0.0 0.0
23:24 15.4 14.3 93 1034.4 7.6 NE 9.8 0.0 0.0
23:25 15.4 14.3 93 1034.3 8.3 W 9.8 0.0 0.0
23:26 15.4 14.3 93 1034.5 8.3 N 9.8 0.0 0.0
23:27 15.4 14.3 93 1034.4 7.6 N 9.8 0.0 0.0
23:28 15.4 14.3 93 1034.3 6.0 N 9.8 0.0 0.0
23:29 15.4 14.3 93 1034.3 6.0 N 8.3 0.0 0.0
23:30 15.4 14.3 93 1034.3 4.5 NW 8.3 0.0 0.0
23:31 15.4 14.3 93 1034.3 6.0 N 8.3 0.0 0.0
23:32 15.4 14.3 93 1034.2 6.0 N 8.3 0.0 0.0
23:33 15.4 14.3 93 1034.4 6.9 ESE 8.3 0.0 0.0
23:34 15.4 14.3 93 1034.2 6.9 NE 8.3 0.0 0.0
23:35 15.4 14.3 93 1034.6 6.9 NW 8.3 0.0 0.0
23:36 15.4 14.3 93 1034.3 6.0 W 8.3 0.0 0.0
23:37 15.4 14.3 93 1034.6 5.4 N 7.6 0.0 0.0
23:38 15.4 14.3 93 1034.5 8.3 N 8.3 0.0 0.0
23:40 15.4 14.3 93 1034.5 6.0 N 8.3 0.0 0.0
23:41 15.4 14.3 93 1034.2 6.0 NW 8.3 0.0 0.0
23:42 15.4 14.3 93 1034.4 3.8 NNW 8.3 0.0 0.0
23:43 15.4 14.3 93 1034.6 6.0 N 8.3 0.0 0.0
23:44 15.3 14.2 93 1034.3 4.5 S 8.3 0.0 0.0
23:45 15.3 14.2 93 1034.3 5.4 N 8.3 0.0 0.0
23:46 15.3 14.2 93 1034.3 6.0 NE 8.3 0.0 0.0
23:47 15.3 14.2 93 1034.3 7.6 NE 8.3 0.0 0.0
23:48 15.3 14.2 93 1034.4 9.2 NE 9.2 0.0 0.0
23:49 15.3 14.2 93 1034.4 6.9 N 9.2 0.0 0.0
23:50 15.3 14.2 93 1034.5 8.3 WNW 9.2 0.0 0.0
23:51 15.3 14.2 93 1034.4 5.4 NE 9.2 0.0 0.0
23:52 15.3 14.2 93 1034.3 3.1 NW 9.2 0.0 0.0
23:53 15.3 14.2 93 1034.4 6.0 N 9.2 0.0 0.0
23:54 15.3 14.2 93 1034.4 5.4 N 9.2 0.0 0.0
23:55 15.3 14.2 93 1034.3 5.4 N 9.2 0.0 0.0
23:56 15.3 14.2 93 1034.4 5.4 SW 9.2 0.0 0.0
23:57 15.3 14.2 93 1034.3 6.0 N 9.2 0.0 0.0
23:59 15.3 14.2 93 1034.4 3.8 N 8.3 0.0 0.0

 

 

UK - WEATHER STATION TOPSITES - UK World Weather Websites

Copyright © Carnkie Weather 2009 - 2022.